Time,TemperatureF,DewpointF,PressureIn,WindDirection,WindDirectionDegrees,WindSpeedMPH,WindSpeedGustMPH,Humidity,HourlyPrecipIn,Conditions,Clouds,dailyrainin,SoftwareType,DateUTC
2013-06-10 00:00:00,61.7,58.4,29.82,ESE,112,0.0,5.0,89,0.00,,,-99.99,WeatherLink 5.9.3,2013-06-10 05:00:00,
2013-06-10 00:06:00,60.9,57.6,29.82,ESE,115,0.0,4.0,89,0.00,,,0.00,Wunderground v.1.15,2013-06-10 05:06:00,
2013-06-10 00:07:00,60.9,57.6,29.82,ESE,115,0.0,4.0,89,0.00,,,0.00,Wunderground v.1.15,2013-06-10 05:07:00,
2013-06-10 00:08:00,60.9,57.6,29.82,ESE,115,0.0,4.0,89,0.00,,,0.00,Wunderground v.1.15,2013-06-10 05:08:00,
2013-06-10 00:11:00,60.9,57.6,29.82,ESE,115,0.0,4.0,89,0.00,,,0.00,Wunderground v.1.15,2013-06-10 05:11:00,
2013-06-10 00:12:00,60.9,57.6,29.82,ESE,115,0.0,0.0,89,0.00,,,0.00,Wunderground v.1.15,2013-06-10 05:12:00,
2013-06-10 00:13:00,60.9,57.6,29.82,ESE,115,1.0,1.0,89,0.00,,,0.00,Wunderground v.1.15,2013-06-10 05:13:00,
2013-06-10 00:15:00,60.9,58.3,29.82,ESE,115,0.0,1.0,91,0.00,,,0.00,Wunderground v.1.15,2013-06-10 05:15:00,
2013-06-10 00:17:00,60.9,57.6,29.82,ESE,115,0.0,1.0,89,0.00,,,0.00,Wunderground v.1.15,2013-06-10 05:17:00,
2013-06-10 00:18:00,60.9,57.6,29.82,ESE,115,0.0,1.0,89,0.00,,,0.00,Wunderground v.1.15,2013-06-10 05:18:00,
2013-06-10 00:20:00,60.9,57.6,29.82,ESE,115,0.0,1.0,89,0.00,,,0.00,Wunderground v.1.15,2013-06-10 05:20:00,
2013-06-10 00:21:00,60.9,57.6,29.82,ESE,115,0.0,0.0,89,0.00,,,0.00,Wunderground v.1.15,2013-06-10 05:21:00,
2013-06-10 00:25:00,60.9,57.6,29.82,ESE,115,2.0,2.0,89,0.00,,,0.00,Wunderground v.1.15,2013-06-10 05:25:00,
2013-06-10 00:26:00,60.8,57.5,29.82,ESE,115,0.0,2.0,89,0.00,,,0.00,Wunderground v.1.15,2013-06-10 05:26:00,
2013-06-10 00:31:00,60.8,57.5,29.81,ESE,115,0.0,2.0,89,0.00,,,0.00,Wunderground v.1.15,2013-06-10 05:31:00,
2013-06-10 00:32:00,60.8,57.5,29.81,ESE,115,0.0,0.0,89,0.00,,,0.00,Wunderground v.1.15,2013-06-10 05:32:00,
2013-06-10 00:33:00,60.8,57.5,29.81,ESE,115,0.0,0.0,89,0.00,,,0.00,Wunderground v.1.15,2013-06-10 05:33:00,
2013-06-10 00:36:00,60.7,57.4,29.81,ESE,115,0.0,0.0,89,0.00,,,0.00,Wunderground v.1.15,2013-06-10 05:36:00,
2013-06-10 00:38:00,60.7,57.1,29.81,ESE,115,0.0,0.0,88,0.00,,,0.00,Wunderground v.1.15,2013-06-10 05:38:00,
2013-06-10 00:42:00,60.6,57.3,29.82,ESE,115,0.0,0.0,89,0.00,,,0.00,Wunderground v.1.15,2013-06-10 05:42:00,
2013-06-10 00:43:00,60.6,57.3,29.82,ESE,115,0.0,0.0,89,0.00,,,0.00,Wunderground v.1.15,2013-06-10 05:43:00,
2013-06-10 00:45:00,60.6,57.3,29.82,ESE,115,0.0,0.0,89,0.00,,,0.00,Wunderground v.1.15,2013-06-10 05:45:00,
2013-06-10 00:48:00,60.5,57.2,29.81,ESE,115,0.0,0.0,89,0.00,,,0.00,Wunderground v.1.15,2013-06-10 05:48:00,
2013-06-10 00:50:00,60.4,57.1,29.81,ESE,115,0.0,0.0,89,0.00,,,0.00,Wunderground v.1.15,2013-06-10 05:50:00,
2013-06-10 00:53:00,60.3,57.0,29.81,ESE,115,0.0,0.0,89,0.00,,,0.00,Wunderground v.1.15,2013-06-10 05:53:00,
2013-06-10 00:55:00,60.2,56.9,29.81,ESE,115,0.0,0.0,89,0.00,,,0.00,Wunderground v.1.15,2013-06-10 05:55:00,
2013-06-10 00:56:00,60.2,56.9,29.81,ESE,115,0.0,0.0,89,0.00,,,0.00,Wunderground v.1.15,2013-06-10 05:56:00,
2013-06-10 00:57:00,60.1,57.2,29.81,ESE,115,0.0,0.0,90,0.00,,,0.00,Wunderground v.1.15,2013-06-10 05:57:00,
2013-06-10 00:58:00,60.1,57.2,29.81,ESE,115,0.0,0.0,90,0.00,,,0.00,Wunderground v.1.15,2013-06-10 05:58:00,
2013-06-10 01:01:00,59.9,57.0,29.81,ESE,115,0.0,0.0,90,0.00,,,0.00,Wunderground v.1.15,2013-06-10 06:01:00,
2013-06-10 01:02:00,59.9,57.0,29.81,ESE,115,0.0,0.0,90,0.00,,,0.00,Wunderground v.1.15,2013-06-10 06:02:00,
2013-06-10 01:05:00,60.7,57.7,29.81,ESE,112,0.0,2.0,90,0.00,,,-99.99,WeatherLink 5.9.3,2013-06-10 06:05:00,
2013-06-10 01:06:00,59.7,56.8,29.81,ESE,115,0.0,0.0,90,0.00,,,0.00,Wunderground v.1.15,2013-06-10 06:06:00,
2013-06-10 01:10:00,59.5,56.6,29.81,ESE,115,0.0,0.0,90,0.00,,,0.00,Wunderground v.1.15,2013-06-10 06:10:00,
2013-06-10 01:12:00,59.4,56.5,29.80,ESE,115,0.0,0.0,90,0.00,,,0.00,Wunderground v.1.15,2013-06-10 06:12:00,
2013-06-10 01:13:00,59.4,56.5,29.80,ESE,115,0.0,0.0,90,0.00,,,0.00,Wunderground v.1.15,2013-06-10 06:13:00,
2013-06-10 01:15:00,59.4,56.8,29.80,ESE,115,0.0,0.0,91,0.00,,,0.00,Wunderground v.1.15,2013-06-10 06:15:00,
2013-06-10 01:16:00,59.3,56.7,29.80,ESE,115,0.0,0.0,91,0.00,,,0.00,Wunderground v.1.15,2013-06-10 06:16:00,
2013-06-10 01:20:00,59.3,56.7,29.80,ESE,115,0.0,0.0,91,0.00,,,0.00,Wunderground v.1.15,2013-06-10 06:20:00,
2013-06-10 01:21:00,59.3,56.7,29.80,ESE,115,0.0,0.0,91,0.00,,,0.00,Wunderground v.1.15,2013-06-10 06:21:00,
2013-06-10 01:22:00,59.3,56.7,29.80,ESE,115,0.0,0.0,91,0.00,,,0.00,Wunderground v.1.15,2013-06-10 06:22:00,
2013-06-10 01:26:00,59.3,56.7,29.80,ESE,115,0.0,0.0,91,0.00,,,0.00,Wunderground v.1.15,2013-06-10 06:26:00,
2013-06-10 01:27:00,59.3,57.0,29.80,ESE,115,0.0,0.0,92,0.00,,,0.00,Wunderground v.1.15,2013-06-10 06:27:00,
2013-06-10 01:28:00,59.4,56.8,29.80,ESE,115,0.0,0.0,91,0.00,,,0.00,Wunderground v.1.15,2013-06-10 06:28:00,
2013-06-10 01:31:00,59.4,56.8,29.80,ESE,115,0.0,0.0,91,0.00,,,0.00,Wunderground v.1.15,2013-06-10 06:31:00,
2013-06-10 01:32:00,59.4,56.8,29.80,ESE,115,0.0,0.0,91,0.00,,,0.00,Wunderground v.1.15,2013-06-10 06:32:00,
2013-06-10 01:33:00,59.4,56.8,29.80,ESE,115,0.0,0.0,91,0.00,,,0.00,Wunderground v.1.15,2013-06-10 06:33:00,
2013-06-10 01:35:00,59.4,56.8,29.80,ESE,115,0.0,0.0,91,0.00,,,0.00,Wunderground v.1.15,2013-06-10 06:35:00,
2013-06-10 01:38:00,59.4,56.8,29.80,ESE,115,0.0,0.0,91,0.00,,,0.00,Wunderground v.1.15,2013-06-10 06:38:00,
2013-06-10 01:40:00,59.4,56.8,29.79,ESE,115,0.0,0.0,91,0.00,,,0.00,Wunderground v.1.15,2013-06-10 06:40:00,
2013-06-10 01:41:00,59.4,56.8,29.80,ESE,115,0.0,0.0,91,0.00,,,0.00,Wunderground v.1.15,2013-06-10 06:41:00,
2013-06-10 01:45:00,59.5,56.9,29.79,ESE,115,0.0,0.0,91,0.00,,,0.00,Wunderground v.1.15,2013-06-10 06:45:00,
2013-06-10 01:46:00,59.5,56.9,29.79,ESE,115,0.0,0.0,91,0.00,,,0.00,Wunderground v.1.15,2013-06-10 06:46:00,
2013-06-10 01:47:00,59.5,56.9,29.79,ESE,115,0.0,0.0,91,0.00,,,0.00,Wunderground v.1.15,2013-06-10 06:47:00,
2013-06-10 01:50:00,59.6,56.7,29.79,ESE,115,0.0,0.0,90,0.00,,,0.00,Wunderground v.1.15,2013-06-10 06:50:00,
2013-06-10 01:51:00,59.6,56.7,29.79,ESE,115,0.0,0.0,90,0.00,,,0.00,Wunderground v.1.15,2013-06-10 06:51:00,
2013-06-10 01:52:00,59.7,56.8,29.79,ESE,115,0.0,0.0,90,0.00,,,0.00,Wunderground v.1.15,2013-06-10 06:52:00,
2013-06-10 01:56:00,59.8,56.9,29.79,ESE,115,0.0,0.0,90,0.00,,,0.00,Wunderground v.1.15,2013-06-10 06:56:00,
2013-06-10 01:57:00,59.8,56.9,29.79,ESE,115,0.0,0.0,90,0.00,,,0.00,Wunderground v.1.15,2013-06-10 06:57:00,
2013-06-10 02:02:00,59.9,57.0,29.79,ESE,115,0.0,0.0,90,0.00,,,0.00,Wunderground v.1.15,2013-06-10 07:02:00,
2013-06-10 02:03:00,59.9,56.6,29.78,ESE,115,0.0,0.0,89,0.00,,,0.00,Wunderground v.1.15,2013-06-10 07:03:00,
2013-06-10 02:06:00,60.0,56.7,29.79,ESE,115,0.0,0.0,89,0.00,,,0.00,Wunderground v.1.15,2013-06-10 07:06:00,
2013-06-10 02:07:00,60.1,56.8,29.78,ESE,115,0.0,1.0,89,0.00,,,0.00,Wunderground v.1.15,2013-06-10 07:07:00,
2013-06-10 02:08:00,60.1,56.8,29.78,ESE,115,1.0,1.0,89,0.00,,,0.00,Wunderground v.1.15,2013-06-10 07:08:00,
2013-06-10 02:09:00,60.1,56.8,29.78,ESE,115,0.0,1.0,89,0.00,,,0.00,Wunderground v.1.15,2013-06-10 07:09:00,
2013-06-10 02:11:00,60.2,56.6,29.79,ESE,114,0.0,0.0,88,0.00,,,0.00,Wunderground v.1.15,2013-06-10 07:11:00,
2013-06-10 02:13:00,60.2,56.6,29.79,ESE,115,0.0,0.0,88,0.00,,,0.00,Wunderground v.1.15,2013-06-10 07:13:00,
2013-06-10 02:14:00,60.3,56.7,29.79,ESE,115,0.0,2.0,88,0.00,,,0.00,Wunderground v.1.15,2013-06-10 07:14:00,
2013-06-10 02:16:00,60.4,56.8,29.78,ESE,115,1.0,2.0,88,0.00,,,0.00,Wunderground v.1.15,2013-06-10 07:16:00,
2013-06-10 02:17:00,60.4,56.8,29.78,ESE,115,0.0,2.0,88,0.00,,,0.00,Wunderground v.1.15,2013-06-10 07:17:00,
2013-06-10 02:18:00,60.4,56.5,29.78,ESE,115,2.0,2.0,87,0.00,,,0.00,Wunderground v.1.15,2013-06-10 07:18:00,
2013-06-10 02:19:00,60.5,56.6,29.78,ESE,115,0.0,2.0,87,0.00,,,0.00,Wunderground v.1.15,2013-06-10 07:19:00,
2013-06-10 02:21:00,60.5,56.6,29.78,ESE,115,1.0,2.0,87,0.00,,,0.00,Wunderground v.1.15,2013-06-10 07:21:00,
2013-06-10 02:23:00,60.6,56.7,29.78,ESE,117,2.0,2.0,87,0.00,,,0.00,Wunderground v.1.15,2013-06-10 07:23:00,
2013-06-10 02:24:00,60.6,56.7,29.78,ESE,117,0.0,2.0,87,0.00,,,0.00,Wunderground v.1.15,2013-06-10 07:24:00,
2013-06-10 02:25:00,60.6,56.7,29.78,ESE,117,2.0,2.0,87,0.00,,,0.00,Wunderground v.1.15,2013-06-10 07:25:00,
2013-06-10 02:26:00,60.6,56.7,29.78,ESE,117,0.0,2.0,87,0.00,,,0.00,Wunderground v.1.15,2013-06-10 07:26:00,
2013-06-10 02:30:00,60.6,56.4,29.78,ESE,117,0.0,2.0,86,0.00,,,0.00,Wunderground v.1.15,2013-06-10 07:30:00,
2013-06-10 02:31:00,60.6,56.4,29.78,ESE,121,2.0,2.0,86,0.00,,,0.00,Wunderground v.1.15,2013-06-10 07:31:00,
2013-06-10 02:33:00,60.6,56.4,29.78,ESE,123,0.0,1.0,86,0.00,,,0.00,Wunderground v.1.15,2013-06-10 07:33:00,
2013-06-10 02:34:00,60.7,56.5,29.78,ESE,123,0.0,1.0,86,0.00,,,0.00,Wunderground v.1.15,2013-06-10 07:34:00,
2013-06-10 02:36:00,60.7,56.5,29.78,ESE,123,0.0,1.0,86,0.00,,,0.00,Wunderground v.1.15,2013-06-10 07:36:00,
2013-06-10 02:37:00,60.7,56.5,29.78,ESE,123,0.0,1.0,86,0.00,,,0.00,Wunderground v.1.15,2013-06-10 07:37:00,
2013-06-10 02:41:00,60.6,56.4,29.78,ESE,123,0.0,0.0,86,0.00,,,0.00,Wunderground v.1.15,2013-06-10 07:41:00,
2013-06-10 02:42:00,60.6,56.4,29.78,ESE,123,0.0,0.0,86,0.00,,,0.00,Wunderground v.1.15,2013-06-10 07:42:00,
2013-06-10 02:43:00,60.6,56.4,29.78,ESE,123,0.0,0.0,86,0.00,,,0.00,Wunderground v.1.15,2013-06-10 07:43:00,
2013-06-10 02:44:00,60.5,56.6,29.78,ESE,123,0.0,0.0,87,0.00,,,0.00,Wunderground v.1.15,2013-06-10 07:44:00,
2013-06-10 02:47:00,60.3,56.4,29.78,ESE,123,0.0,0.0,87,0.00,,,0.00,Wunderground v.1.15,2013-06-10 07:47:00,
2013-06-10 02:48:00,60.3,56.4,29.78,ESE,123,0.0,0.0,87,0.00,,,0.00,Wunderground v.1.15,2013-06-10 07:48:00,
2013-06-10 02:49:00,60.3,56.1,29.78,ESE,123,0.0,0.0,86,0.00,,,0.00,Wunderground v.1.15,2013-06-10 07:49:00,
2013-06-10 02:52:00,60.1,55.9,29.78,ESE,123,0.0,0.0,86,0.00,,,0.00,Wunderground v.1.15,2013-06-10 07:52:00,
2013-06-10 02:53:00,60.0,55.8,29.78,ESE,123,0.0,0.0,86,0.00,,,0.00,Wunderground v.1.15,2013-06-10 07:53:00,
2013-06-10 02:55:00,59.9,56.0,29.78,ESE,123,0.0,0.0,87,0.00,,,0.00,Wunderground v.1.15,2013-06-10 07:55:00,
2013-06-10 02:56:00,59.9,56.0,29.78,ESE,123,0.0,0.0,87,0.00,,,0.00,Wunderground v.1.15,2013-06-10 07:56:00,
2013-06-10 02:59:00,59.7,55.8,29.78,ESE,123,0.0,0.0,87,0.00,,,0.00,Wunderground v.1.15,2013-06-10 07:59:00,
2013-06-10 03:00:00,60.3,56.4,29.78,ESE,112,0.0,6.0,87,0.00,,,-99.99,WeatherLink 5.9.3,2013-06-10 08:00:00,
2013-06-10 03:01:00,59.6,55.7,29.78,ESE,123,0.0,0.0,87,0.00,,,0.00,Wunderground v.1.15,2013-06-10 08:01:00,
2013-06-10 03:03:00,59.5,55.6,29.78,ESE,123,0.0,0.0,87,0.00,,,0.00,Wunderground v.1.15,2013-06-10 08:03:00,
2013-06-10 03:04:00,59.5,55.6,29.78,ESE,123,0.0,0.0,87,0.00,,,0.00,Wunderground v.1.15,2013-06-10 08:04:00,
2013-06-10 03:05:00,59.4,55.5,29.78,ESE,123,0.0,0.0,87,0.00,,,0.00,Wunderground v.1.15,2013-06-10 08:05:00,
2013-06-10 03:06:00,59.4,55.5,29.78,ESE,123,0.0,0.0,87,0.00,,,0.00,Wunderground v.1.15,2013-06-10 08:06:00,
2013-06-10 03:09:00,59.2,55.3,29.78,ESE,123,0.0,0.0,87,0.00,,,0.00,Wunderground v.1.15,2013-06-10 08:09:00,
2013-06-10 03:10:00,59.2,55.3,29.78,ESE,123,0.0,0.0,87,0.00,,,0.00,Wunderground v.1.15,2013-06-10 08:10:00,
2013-06-10 03:11:00,59.1,55.2,29.78,ESE,123,0.0,0.0,87,0.00,,,0.00,Wunderground v.1.15,2013-06-10 08:11:00,
2013-06-10 03:14:00,58.9,55.0,29.78,ESE,123,0.0,0.0,87,0.00,,,0.00,Wunderground v.1.15,2013-06-10 08:14:00,
2013-06-10 03:16:00,58.8,54.9,29.78,ESE,123,0.0,0.0,87,0.00,,,0.00,Wunderground v.1.15,2013-06-10 08:16:00,
2013-06-10 03:17:00,58.8,55.3,29.78,ESE,123,0.0,0.0,88,0.00,,,0.00,Wunderground v.1.15,2013-06-10 08:17:00,
2013-06-10 03:18:00,58.7,55.2,29.78,ESE,123,0.0,0.0,88,0.00,,,0.00,Wunderground v.1.15,2013-06-10 08:18:00,
2013-06-10 03:21:00,58.5,55.0,29.78,ESE,123,0.0,0.0,88,0.00,,,0.00,Wunderground v.1.15,2013-06-10 08:21:00,
2013-06-10 03:22:00,58.4,54.9,29.78,ESE,123,0.0,0.0,88,0.00,,,0.00,Wunderground v.1.15,2013-06-10 08:22:00,
2013-06-10 03:24:00,58.3,54.8,29.78,ESE,123,0.0,0.0,88,0.00,,,0.00,Wunderground v.1.15,2013-06-10 08:24:00,
2013-06-10 03:27:00,58.0,54.8,29.78,ESE,123,0.0,0.0,89,0.00,,,0.00,Wunderground v.1.15,2013-06-10 08:27:00,
2013-06-10 03:28:00,58.0,54.8,29.78,ESE,123,0.0,0.0,89,0.00,,,0.00,Wunderground v.1.15,2013-06-10 08:28:00,
2013-06-10 03:30:00,58.0,54.8,29.78,ESE,123,0.0,0.0,89,0.00,,,0.00,Wunderground v.1.15,2013-06-10 08:30:00,
2013-06-10 03:31:00,58.0,54.8,29.78,ESE,123,0.0,0.0,89,0.00,,,0.00,Wunderground v.1.15,2013-06-10 08:31:00,
2013-06-10 03:32:00,58.0,55.1,29.78,ESE,123,0.0,0.0,90,0.00,,,0.00,Wunderground v.1.15,2013-06-10 08:32:00,
2013-06-10 03:34:00,57.9,55.0,29.78,ESE,123,0.0,0.0,90,0.00,,,0.00,Wunderground v.1.15,2013-06-10 08:34:00,
2013-06-10 03:35:00,57.8,54.9,29.78,ESE,123,0.0,0.0,90,0.00,,,0.00,Wunderground v.1.15,2013-06-10 08:35:00,
2013-06-10 03:36:00,57.7,54.8,29.78,ESE,123,0.0,0.0,90,0.00,,,0.00,Wunderground v.1.15,2013-06-10 08:36:00,
2013-06-10 03:37:00,57.6,54.7,29.78,ESE,123,0.0,0.0,90,0.00,,,0.00,Wunderground v.1.15,2013-06-10 08:37:00,
2013-06-10 03:39:00,57.5,54.6,29.78,ESE,123,0.0,0.0,90,0.00,,,0.00,Wunderground v.1.15,2013-06-10 08:39:00,
2013-06-10 03:41:00,57.4,54.5,29.78,ESE,123,0.0,0.0,90,0.00,,,0.00,Wunderground v.1.15,2013-06-10 08:41:00,
2013-06-10 03:42:00,57.4,54.5,29.78,ESE,123,0.0,0.0,90,0.00,,,0.00,Wunderground v.1.15,2013-06-10 08:42:00,
2013-06-10 03:43:00,57.3,54.4,29.78,ESE,123,0.0,0.0,90,0.00,,,0.00,Wunderground v.1.15,2013-06-10 08:43:00,
2013-06-10 03:44:00,57.3,54.4,29.78,ESE,123,0.0,0.0,90,0.00,,,0.00,Wunderground v.1.15,2013-06-10 08:44:00,
2013-06-10 03:48:00,57.1,54.2,29.78,ESE,123,0.0,0.0,90,0.00,,,0.00,Wunderground v.1.15,2013-06-10 08:48:00,
2013-06-10 03:49:00,57.1,54.5,29.78,ESE,123,0.0,0.0,91,0.00,,,0.00,Wunderground v.1.15,2013-06-10 08:49:00,
2013-06-10 03:51:00,57.0,54.4,29.78,ESE,123,0.0,0.0,91,0.00,,,0.00,Wunderground v.1.15,2013-06-10 08:51:00,
2013-06-10 03:54:00,56.9,54.3,29.78,ESE,123,0.0,0.0,91,0.00,,,0.00,Wunderground v.1.15,2013-06-10 08:54:00,
2013-06-10 03:55:00,56.9,54.3,29.78,ESE,123,0.0,0.0,91,0.00,,,0.00,Wunderground v.1.15,2013-06-10 08:55:00,
2013-06-10 03:56:00,56.8,54.2,29.78,ESE,123,0.0,0.0,91,0.00,,,0.00,Wunderground v.1.15,2013-06-10 08:56:00,
2013-06-10 03:59:00,56.8,54.2,29.78,ESE,123,0.0,0.0,91,0.00,,,0.00,Wunderground v.1.15,2013-06-10 08:59:00,
2013-06-10 04:00:00,58.0,55.4,29.78,ESE,112,0.0,1.0,91,0.00,,,-99.99,WeatherLink 5.9.3,2013-06-10 09:00:00,
2013-06-10 04:01:00,56.7,54.1,29.78,ESE,123,0.0,0.0,91,0.00,,,0.00,Wunderground v.1.15,2013-06-10 09:01:00,
2013-06-10 04:03:00,56.6,54.0,29.78,ESE,123,0.0,0.0,91,0.00,,,0.00,Wunderground v.1.15,2013-06-10 09:03:00,
2013-06-10 04:07:00,56.5,53.9,29.78,ESE,123,0.0,0.0,91,0.00,,,0.00,Wunderground v.1.15,2013-06-10 09:07:00,
2013-06-10 04:08:00,56.4,53.8,29.78,ESE,123,0.0,0.0,91,0.00,,,0.00,Wunderground v.1.15,2013-06-10 09:08:00,
2013-06-10 04:09:00,56.4,53.8,29.77,ESE,123,1.0,1.0,91,0.00,,,0.00,Wunderground v.1.15,2013-06-10 09:09:00,
2013-06-10 04:11:00,56.3,54.0,29.77,ESE,123,0.0,1.0,92,0.00,,,0.00,Wunderground v.1.15,2013-06-10 09:11:00,
2013-06-10 04:14:00,56.1,53.8,29.77,ESE,123,0.0,0.0,92,0.00,,,0.00,Wunderground v.1.15,2013-06-10 09:14:00,
2013-06-10 04:15:00,56.1,53.8,29.77,ESE,123,0.0,0.0,92,0.00,,,0.00,Wunderground v.1.15,2013-06-10 09:15:00,
2013-06-10 04:18:00,56.0,53.7,29.78,ESE,123,0.0,0.0,92,0.00,,,0.00,Wunderground v.1.15,2013-06-10 09:18:00,
2013-06-10 04:19:00,56.0,53.7,29.78,ESE,123,0.0,0.0,92,0.00,,,0.00,Wunderground v.1.15,2013-06-10 09:19:00,
2013-06-10 04:20:00,55.9,53.6,29.78,ESE,123,0.0,0.0,92,0.00,,,0.00,Wunderground v.1.15,2013-06-10 09:20:00,
2013-06-10 04:21:00,55.9,53.6,29.78,ESE,123,0.0,0.0,92,0.00,,,0.00,Wunderground v.1.15,2013-06-10 09:21:00,
2013-06-10 04:24:00,55.8,53.5,29.78,ESE,123,0.0,0.0,92,0.00,,,0.00,Wunderground v.1.15,2013-06-10 09:24:00,
2013-06-10 04:26:00,55.8,53.5,29.78,ESE,123,0.0,0.0,92,0.00,,,0.00,Wunderground v.1.15,2013-06-10 09:26:00,
2013-06-10 04:27:00,55.7,53.4,29.77,ESE,123,0.0,0.0,92,0.00,,,0.00,Wunderground v.1.15,2013-06-10 09:27:00,
2013-06-10 04:31:00,55.6,53.3,29.77,ESE,123,0.0,0.0,92,0.00,,,0.00,Wunderground v.1.15,2013-06-10 09:31:00,
2013-06-10 04:32:00,55.6,53.3,29.77,ESE,123,0.0,0.0,92,0.00,,,0.00,Wunderground v.1.15,2013-06-10 09:32:00,
2013-06-10 04:33:00,55.5,53.2,29.77,ESE,123,0.0,0.0,92,0.00,,,0.00,Wunderground v.1.15,2013-06-10 09:33:00,
2013-06-10 04:37:00,55.4,53.4,29.77,ESE,123,0.0,0.0,93,0.00,,,0.00,Wunderground v.1.15,2013-06-10 09:37:00,
2013-06-10 04:38:00,55.4,53.4,29.77,ESE,123,0.0,0.0,93,0.00,,,0.00,Wunderground v.1.15,2013-06-10 09:38:00,
2013-06-10 04:39:00,55.4,53.4,29.77,ESE,123,0.0,0.0,93,0.00,,,0.00,Wunderground v.1.15,2013-06-10 09:39:00,
2013-06-10 04:43:00,55.3,53.3,29.77,ESE,123,0.0,0.0,93,0.00,,,0.00,Wunderground v.1.15,2013-06-10 09:43:00,
2013-06-10 04:44:00,55.3,53.3,29.77,ESE,123,0.0,0.0,93,0.00,,,0.00,Wunderground v.1.15,2013-06-10 09:44:00,
2013-06-10 04:45:00,55.3,53.3,29.77,ESE,123,0.0,0.0,93,0.00,,,0.00,Wunderground v.1.15,2013-06-10 09:45:00,
2013-06-10 04:46:00,55.2,53.2,29.77,ESE,123,0.0,0.0,93,0.00,,,0.00,Wunderground v.1.15,2013-06-10 09:46:00,
2013-06-10 04:47:00,55.2,53.2,29.77,ESE,123,0.0,0.0,93,0.00,,,0.00,Wunderground v.1.15,2013-06-10 09:47:00,
2013-06-10 04:49:00,55.2,53.2,29.77,ESE,123,0.0,0.0,93,0.00,,,0.00,Wunderground v.1.15,2013-06-10 09:49:00,
2013-06-10 04:50:00,55.1,53.1,29.77,ESE,123,0.0,0.0,93,0.00,,,0.00,Wunderground v.1.15,2013-06-10 09:50:00,
2013-06-10 04:52:00,55.0,53.0,29.77,ESE,123,0.0,0.0,93,0.00,,,0.00,Wunderground v.1.15,2013-06-10 09:52:00,
2013-06-10 04:54:00,55.0,53.0,29.78,ESE,123,0.0,0.0,93,0.00,,,0.00,Wunderground v.1.15,2013-06-10 09:54:00,
2013-06-10 04:56:00,55.0,53.0,29.78,ESE,123,0.0,0.0,93,0.00,,,0.00,Wunderground v.1.15,2013-06-10 09:56:00,
2013-06-10 04:57:00,55.0,53.0,29.78,ESE,123,0.0,0.0,93,0.00,,,0.00,Wunderground v.1.15,2013-06-10 09:57:00,
2013-06-10 05:02:00,54.9,52.9,29.77,ESE,123,0.0,0.0,93,0.00,,,0.00,Wunderground v.1.15,2013-06-10 10:02:00,
2013-06-10 05:03:00,54.9,52.9,29.78,ESE,123,0.0,0.0,93,0.00,,,0.00,Wunderground v.1.15,2013-06-10 10:03:00,
2013-06-10 05:04:00,54.9,52.9,29.78,ESE,123,0.0,0.0,93,0.00,,,0.00,Wunderground v.1.15,2013-06-10 10:04:00,
2013-06-10 05:06:00,55.6,53.6,29.77,ESE,112,0.0,1.0,93,0.00,,,-99.99,WeatherLink 5.9.3,2013-06-10 10:06:00,
2013-06-10 05:07:00,54.8,52.8,29.78,ESE,123,0.0,0.0,93,0.00,,,0.00,Wunderground v.1.15,2013-06-10 10:07:00,
2013-06-10 05:08:00,54.7,52.7,29.78,ESE,123,0.0,0.0,93,0.00,,,0.00,Wunderground v.1.15,2013-06-10 10:08:00,
2013-06-10 05:09:00,54.7,52.7,29.77,ESE,123,1.0,1.0,93,0.00,,,0.00,Wunderground v.1.15,2013-06-10 10:09:00,
2013-06-10 05:10:00,54.7,52.7,29.77,ESE,123,0.0,1.0,93,0.00,,,0.00,Wunderground v.1.15,2013-06-10 10:10:00,
2013-06-10 05:13:00,54.6,52.6,29.77,ESE,123,0.0,0.0,93,0.00,,,0.00,Wunderground v.1.15,2013-06-10 10:13:00,
2013-06-10 05:14:00,54.6,52.6,29.77,ESE,123,0.0,0.0,93,0.00,,,0.00,Wunderground v.1.15,2013-06-10 10:14:00,
2013-06-10 05:15:00,54.6,52.6,29.77,ESE,123,0.0,0.0,93,0.00,,,0.00,Wunderground v.1.15,2013-06-10 10:15:00,
2013-06-10 05:17:00,54.5,52.5,29.77,ESE,123,0.0,0.0,93,0.00,,,0.00,Wunderground v.1.15,2013-06-10 10:17:00,
2013-06-10 05:19:00,54.5,52.5,29.77,ESE,123,0.0,3.0,93,0.00,,,0.00,Wunderground v.1.15,2013-06-10 10:19:00,
2013-06-10 05:20:00,54.5,52.8,29.77,ESE,123,1.0,3.0,94,0.00,,,0.00,Wunderground v.1.15,2013-06-10 10:20:00,
2013-06-10 05:21:00,54.5,52.8,29.77,East,88,0.0,0.0,94,0.00,,,0.00,Wunderground v.1.15,2013-06-10 10:21:00,
2013-06-10 05:22:00,54.5,52.8,29.77,East,88,0.0,0.0,94,0.00,,,0.00,Wunderground v.1.15,2013-06-10 10:22:00,
2013-06-10 05:25:00,54.5,52.8,29.78,East,88,0.0,0.0,94,0.00,,,0.00,Wunderground v.1.15,2013-06-10 10:25:00,
2013-06-10 05:26:00,54.5,52.8,29.77,East,88,0.0,0.0,94,0.00,,,0.00,Wunderground v.1.15,2013-06-10 10:26:00,
2013-06-10 05:28:00,54.5,52.8,29.78,East,88,0.0,0.0,94,0.00,,,0.00,Wunderground v.1.15,2013-06-10 10:28:00,
2013-06-10 05:29:00,54.5,52.8,29.78,East,88,0.0,0.0,94,0.00,,,0.00,Wunderground v.1.15,2013-06-10 10:29:00,
2013-06-10 05:33:00,54.7,53.0,29.77,East,88,0.0,1.0,94,0.00,,,0.00,Wunderground v.1.15,2013-06-10 10:33:00,
2013-06-10 05:34:00,54.7,53.0,29.77,East,88,0.0,1.0,94,0.00,,,0.00,Wunderground v.1.15,2013-06-10 10:34:00,
2013-06-10 05:35:00,54.7,53.0,29.77,East,88,0.0,1.0,94,0.00,,,0.00,Wunderground v.1.15,2013-06-10 10:35:00,
2013-06-10 05:39:00,54.7,53.0,29.77,East,88,1.0,2.0,94,0.00,,,0.00,Wunderground v.1.15,2013-06-10 10:39:00,
2013-06-10 05:42:00,54.7,53.0,29.77,East,88,0.0,1.0,94,0.00,,,0.00,Wunderground v.1.15,2013-06-10 10:42:00,
2013-06-10 05:44:00,54.8,53.1,29.77,East,82,0.0,4.0,94,0.00,,,0.00,Wunderground v.1.15,2013-06-10 10:44:00,
2013-06-10 05:45:00,54.9,53.2,29.77,East,82,0.0,4.0,94,0.00,,,0.00,Wunderground v.1.15,2013-06-10 10:45:00,
2013-06-10 05:47:00,54.9,53.5,29.77,East,82,1.0,4.0,95,0.00,,,0.00,Wunderground v.1.15,2013-06-10 10:47:00,
2013-06-10 05:49:00,55.0,53.6,29.77,East,82,0.0,4.0,95,0.00,,,0.00,Wunderground v.1.15,2013-06-10 10:49:00,
2013-06-10 05:51:00,55.0,53.6,29.77,East,82,0.0,4.0,95,0.00,,,0.00,Wunderground v.1.15,2013-06-10 10:51:00,
2013-06-10 05:53:00,55.0,53.6,29.77,East,82,2.0,2.0,95,0.00,,,0.00,Wunderground v.1.15,2013-06-10 10:53:00,
2013-06-10 05:56:00,55.0,53.6,29.77,East,82,0.0,2.0,95,0.00,,,0.00,Wunderground v.1.15,2013-06-10 10:56:00,
2013-06-10 05:57:00,55.0,53.6,29.77,East,82,0.0,2.0,95,0.00,,,0.00,Wunderground v.1.15,2013-06-10 10:57:00,
2013-06-10 05:58:00,55.0,53.6,29.77,East,82,0.0,2.0,95,0.00,,,0.00,Wunderground v.1.15,2013-06-10 10:58:00,
2013-06-10 05:59:00,55.0,53.6,29.77,East,82,0.0,2.0,95,0.00,,,0.00,Wunderground v.1.15,2013-06-10 10:59:00,
2013-06-10 06:02:00,55.0,53.6,29.77,East,82,0.0,0.0,95,0.00,,,0.00,Wunderground v.1.15,2013-06-10 11:02:00,
2013-06-10 06:03:00,55.1,53.7,29.77,East,82,0.0,2.0,95,0.00,,,0.00,Wunderground v.1.15,2013-06-10 11:03:00,
2013-06-10 06:04:00,55.1,53.7,29.77,East,82,0.0,2.0,95,0.00,,,0.00,Wunderground v.1.15,2013-06-10 11:04:00,
2013-06-10 06:07:00,55.2,53.8,29.77,East,82,0.0,2.0,95,0.00,,,0.00,Wunderground v.1.15,2013-06-10 11:07:00,
2013-06-10 06:09:00,55.2,53.8,29.77,East,82,0.0,2.0,95,0.00,,,0.00,Wunderground v.1.15,2013-06-10 11:09:00,
2013-06-10 06:10:00,55.2,53.8,29.77,East,82,0.0,2.0,95,0.00,,,0.00,Wunderground v.1.15,2013-06-10 11:10:00,
2013-06-10 06:12:00,55.3,53.9,29.77,East,82,0.0,1.0,95,0.00,,,0.00,Wunderground v.1.15,2013-06-10 11:12:00,
2013-06-10 06:16:00,55.5,54.1,29.77,East,82,1.0,2.0,95,0.00,,,0.00,Wunderground v.1.15,2013-06-10 11:16:00,
2013-06-10 06:17:00,55.6,54.2,29.77,East,82,0.0,2.0,95,0.00,,,0.00,Wunderground v.1.15,2013-06-10 11:17:00,
2013-06-10 06:19:00,55.7,54.3,29.77,East,82,0.0,2.0,95,0.00,,,0.00,Wunderground v.1.15,2013-06-10 11:19:00,
2013-06-10 06:21:00,55.8,54.4,29.77,ENE,57,1.0,3.0,95,0.00,,,0.00,Wunderground v.1.15,2013-06-10 11:21:00,
2013-06-10 06:23:00,55.9,54.5,29.77,ENE,63,0.0,2.0,95,0.00,,,0.00,Wunderground v.1.15,2013-06-10 11:23:00,
2013-06-10 06:26:00,56.2,54.8,29.77,NE,40,2.0,4.0,95,0.00,,,0.00,Wunderground v.1.15,2013-06-10 11:26:00,
2013-06-10 06:28:00,56.3,54.9,29.77,NE,44,0.0,4.0,95,0.00,,,0.00,Wunderground v.1.15,2013-06-10 11:28:00,
2013-06-10 06:29:00,56.5,55.1,29.77,NE,41,4.0,4.0,95,0.00,,,0.00,Wunderground v.1.15,2013-06-10 11:29:00,
2013-06-10 06:31:00,56.6,55.2,29.77,NE,37,3.0,4.0,95,0.00,,,0.00,Wunderground v.1.15,2013-06-10 11:31:00,
2013-06-10 06:33:00,56.8,55.4,29.77,ENE,57,0.0,4.0,95,0.00,,,0.00,Wunderground v.1.15,2013-06-10 11:33:00,
2013-06-10 06:34:00,56.9,55.5,29.77,East,95,3.0,4.0,95,0.00,,,0.00,Wunderground v.1.15,2013-06-10 11:34:00,
2013-06-10 06:35:00,57.0,55.6,29.77,ENE,78,3.0,4.0,95,0.00,,,0.00,Wunderground v.1.15,2013-06-10 11:35:00,
2013-06-10 06:36:00,57.1,55.7,29.77,ENE,71,0.0,4.0,95,0.00,,,0.00,Wunderground v.1.15,2013-06-10 11:36:00,
2013-06-10 06:37:00,57.1,55.7,29.77,ENE,71,1.0,4.0,95,0.00,,,0.00,Wunderground v.1.15,2013-06-10 11:37:00,
2013-06-10 06:41:00,57.5,56.1,29.77,ENE,57,0.0,4.0,95,0.00,,,0.00,Wunderground v.1.15,2013-06-10 11:41:00,
2013-06-10 06:42:00,57.6,56.2,29.77,ENE,57,0.0,1.0,95,0.00,,,0.00,Wunderground v.1.15,2013-06-10 11:42:00,
2013-06-10 06:43:00,57.7,56.0,29.77,ENE,59,0.0,2.0,94,0.00,,,0.00,Wunderground v.1.15,2013-06-10 11:43:00,
2013-06-10 06:47:00,58.0,56.3,29.77,NE,50,1.0,7.0,94,0.00,,,0.00,Wunderground v.1.15,2013-06-10 11:47:00,
2013-06-10 06:48:00,58.0,56.3,29.77,NE,49,1.0,7.0,94,0.00,,,0.00,Wunderground v.1.15,2013-06-10 11:48:00,
2013-06-10 06:51:00,58.1,56.4,29.77,ENE,69,0.0,1.0,94,0.00,,,0.00,Wunderground v.1.15,2013-06-10 11:51:00,
2013-06-10 06:54:00,58.4,56.7,29.77,ENE,65,5.0,5.0,94,0.00,,,0.00,Wunderground v.1.15,2013-06-10 11:54:00,
2013-06-10 06:57:00,58.8,56.8,29.77,NE,53,2.0,5.0,93,0.00,,,0.00,Wunderground v.1.15,2013-06-10 11:57:00,
2013-06-10 06:58:00,58.8,56.8,29.77,ENE,66,0.0,5.0,93,0.00,,,0.00,Wunderground v.1.15,2013-06-10 11:58:00,
2013-06-10 06:59:00,58.9,56.9,29.77,ENE,64,0.0,5.0,93,0.00,,,0.00,Wunderground v.1.15,2013-06-10 11:59:00,
2013-06-10 07:00:00,59.0,57.0,29.77,NE,51,0.0,5.0,93,0.00,,,0.00,Wunderground v.1.15,2013-06-10 12:00:00,
2013-06-10 07:01:00,59.0,57.0,29.77,East,86,2.0,5.0,93,0.00,,,0.00,Wunderground v.1.15,2013-06-10 12:01:00,
2013-06-10 07:03:00,59.2,57.2,29.77,ENE,70,0.0,3.0,93,0.00,,,0.00,Wunderground v.1.15,2013-06-10 12:03:00,
2013-06-10 07:04:00,59.4,57.1,29.77,ENE,69,0.0,4.0,92,0.00,,,0.00,Wunderground v.1.15,2013-06-10 12:04:00,
2013-06-10 07:06:00,59.7,57.4,29.77,NE,36,0.0,4.0,92,0.00,,,0.00,Wunderground v.1.15,2013-06-10 12:06:00,
2013-06-10 07:08:00,59.9,57.6,29.77,ENE,78,1.0,4.0,92,0.00,,,0.00,Wunderground v.1.15,2013-06-10 12:08:00,
2013-06-10 07:09:00,60.0,57.7,29.77,NE,49,0.0,4.0,92,0.00,,,0.00,Wunderground v.1.15,2013-06-10 12:09:00,
2013-06-10 07:11:00,60.3,57.7,29.77,ENE,57,0.0,4.0,91,0.00,,,0.00,Wunderground v.1.15,2013-06-10 12:11:00,
2013-06-10 07:12:00,60.4,57.8,29.77,ESE,118,0.0,2.0,91,0.00,,,0.00,Wunderground v.1.15,2013-06-10 12:12:00,
2013-06-10 07:14:00,60.6,58.0,29.77,ENE,63,0.0,2.0,91,0.00,,,0.00,Wunderground v.1.15,2013-06-10 12:14:00,
2013-06-10 07:15:00,60.8,57.8,29.77,NNE,33,2.0,2.0,90,0.00,,,0.00,Wunderground v.1.15,2013-06-10 12:15:00,
2013-06-10 07:19:00,61.1,58.1,29.77,ENE,74,2.0,3.0,90,0.00,,,0.00,Wunderground v.1.15,2013-06-10 12:19:00,
2013-06-10 07:20:00,61.1,57.8,29.77,East,91,1.0,3.0,89,0.00,,,0.00,Wunderground v.1.15,2013-06-10 12:20:00,
2013-06-10 07:21:00,61.2,57.6,29.77,ESE,111,3.0,5.0,88,0.00,,,0.00,Wunderground v.1.15,2013-06-10 12:21:00,
2013-06-10 07:24:00,61.3,57.7,29.77,East,96,0.0,3.0,88,0.00,,,0.00,Wunderground v.1.15,2013-06-10 12:24:00,
2013-06-10 07:25:00,61.3,57.7,29.77,East,101,0.0,3.0,88,0.00,,,0.00,Wunderground v.1.15,2013-06-10 12:25:00,
2013-06-10 07:27:00,61.3,57.7,29.77,East,94,0.0,3.0,88,0.00,,,0.00,Wunderground v.1.15,2013-06-10 12:27:00,
2013-06-10 07:28:00,61.3,57.7,29.77,East,94,0.0,3.0,88,0.00,,,0.00,Wunderground v.1.15,2013-06-10 12:28:00,
2013-06-10 07:29:00,61.3,57.4,29.77,East,94,0.0,3.0,87,0.00,,,0.00,Wunderground v.1.15,2013-06-10 12:29:00,
2013-06-10 07:30:00,61.3,57.4,29.77,East,82,1.0,3.0,87,0.00,,,0.00,Wunderground v.1.15,2013-06-10 12:30:00,
2013-06-10 07:33:00,61.3,57.4,29.77,South,177,1.0,3.0,87,0.00,,,0.00,Wunderground v.1.15,2013-06-10 12:33:00,
2013-06-10 07:36:00,61.1,57.2,29.77,ESE,117,3.0,3.0,87,0.00,,,0.00,Wunderground v.1.15,2013-06-10 12:36:00,
2013-06-10 07:37:00,61.0,57.1,29.77,ESE,117,0.0,3.0,87,0.00,,,0.00,Wunderground v.1.15,2013-06-10 12:37:00,
2013-06-10 07:38:00,61.0,57.4,29.77,ESE,116,1.0,3.0,88,0.00,,,0.00,Wunderground v.1.15,2013-06-10 12:38:00,
2013-06-10 07:42:00,60.8,57.2,29.77,ENE,64,0.0,1.0,88,0.00,,,0.00,Wunderground v.1.15,2013-06-10 12:42:00,
2013-06-10 07:43:00,60.8,57.2,29.77,ENE,63,0.0,1.0,88,0.00,,,0.00,Wunderground v.1.15,2013-06-10 12:43:00,
2013-06-10 07:48:00,60.4,56.8,29.77,ESE,113,1.0,3.0,88,0.00,,,0.00,Wunderground v.1.15,2013-06-10 12:48:00,
2013-06-10 07:49:00,60.4,56.8,29.77,ESE,109,0.0,3.0,88,0.00,,,0.00,Wunderground v.1.15,2013-06-10 12:49:00,
2013-06-10 07:50:00,60.4,57.1,29.77,East,90,0.0,3.0,89,0.00,,,0.00,Wunderground v.1.15,2013-06-10 12:50:00,
2013-06-10 07:53:00,60.4,57.1,29.77,NE,55,0.0,1.0,89,0.00,,,0.00,Wunderground v.1.15,2013-06-10 12:53:00,
2013-06-10 07:55:00,60.4,57.1,29.77,ENE,77,0.0,3.0,89,0.00,,,0.00,Wunderground v.1.15,2013-06-10 12:55:00,
2013-06-10 07:56:00,60.4,57.1,29.77,ENE,72,1.0,3.0,89,0.00,,,0.00,Wunderground v.1.15,2013-06-10 12:56:00,
2013-06-10 08:00:00,60.4,57.1,29.77,NE,50,3.0,5.0,89,0.00,,,0.00,Wunderground v.1.15,2013-06-10 13:00:00,
2013-06-10 08:01:00,60.4,57.1,29.77,East,99,2.0,5.0,89,0.00,,,0.00,Wunderground v.1.15,2013-06-10 13:01:00,
2013-06-10 08:02:00,60.5,57.2,29.77,East,90,0.0,1.0,89,0.00,,,0.00,Wunderground v.1.15,2013-06-10 13:02:00,
2013-06-10 08:07:00,60.6,57.3,29.77,NE,42,0.0,2.0,89,0.00,,,0.00,Wunderground v.1.15,2013-06-10 13:07:00,
2013-06-10 08:08:00,60.6,57.3,29.77,NE,40,2.0,2.0,89,0.00,,,0.00,Wunderground v.1.15,2013-06-10 13:08:00,
2013-06-10 08:09:00,60.7,57.4,29.77,ENE,67,0.0,3.0,89,0.00,,,0.00,Wunderground v.1.15,2013-06-10 13:09:00,
2013-06-10 08:12:00,60.8,57.2,29.77,NE,39,1.0,1.0,88,0.00,,,0.00,Wunderground v.1.15,2013-06-10 13:12:00,
2013-06-10 08:13:00,60.9,57.3,29.77,NE,50,2.0,2.0,88,0.00,,,0.00,Wunderground v.1.15,2013-06-10 13:13:00,
2013-06-10 08:14:00,60.9,57.3,29.77,NNE,20,0.0,4.0,88,0.00,,,0.00,Wunderground v.1.15,2013-06-10 13:14:00,
2013-06-10 08:15:00,61.0,57.4,29.77,NNE,24,1.0,4.0,88,0.00,,,0.00,Wunderground v.1.15,2013-06-10 13:15:00,
2013-06-10 08:18:00,61.1,57.5,29.77,ENE,65,2.0,4.0,88,0.00,,,0.00,Wunderground v.1.15,2013-06-10 13:18:00,
2013-06-10 08:19:00,61.2,57.6,29.77,ENE,69,0.0,4.0,88,0.00,,,0.00,Wunderground v.1.15,2013-06-10 13:19:00,
2013-06-10 08:21:00,61.3,57.7,29.77,NE,39,1.0,4.0,88,0.00,,,0.00,Wunderground v.1.15,2013-06-10 13:21:00,
2013-06-10 08:23:00,61.5,57.9,29.77,ENE,67,2.0,4.0,88,0.00,,,0.00,Wunderground v.1.15,2013-06-10 13:23:00,
2013-06-10 08:26:00,61.5,57.6,29.77,ESE,110,1.0,4.0,87,0.00,,,0.00,Wunderground v.1.15,2013-06-10 13:26:00,
2013-06-10 08:27:00,61.5,57.6,29.77,East,98,0.0,4.0,87,0.00,,,0.00,Wunderground v.1.15,2013-06-10 13:27:00,
2013-06-10 08:28:00,61.6,57.4,29.77,East,96,3.0,4.0,86,0.00,,,0.00,Wunderground v.1.15,2013-06-10 13:28:00,
2013-06-10 08:29:00,61.6,57.4,29.77,NE,50,0.0,4.0,86,0.00,,,0.00,Wunderground v.1.15,2013-06-10 13:29:00,
2013-06-10 08:32:00,61.6,57.4,29.77,East,82,1.0,1.0,86,0.00,,,0.00,Wunderground v.1.15,2013-06-10 13:32:00,
2013-06-10 08:33:00,61.5,57.3,29.77,SE,130,1.0,1.0,86,0.00,,,0.00,Wunderground v.1.15,2013-06-10 13:33:00,
2013-06-10 08:36:00,61.5,57.3,29.77,ENE,60,0.0,4.0,86,0.00,,,0.00,Wunderground v.1.15,2013-06-10 13:36:00,
2013-06-10 08:38:00,61.6,57.7,29.77,ENE,76,1.0,4.0,87,0.00,,,0.00,Wunderground v.1.15,2013-06-10 13:38:00,
2013-06-10 08:39:00,61.6,57.4,29.77,East,97,2.0,4.0,86,0.00,,,0.00,Wunderground v.1.15,2013-06-10 13:39:00,
2013-06-10 08:41:00,61.7,57.5,29.78,ENE,60,0.0,5.0,86,0.00,,,0.00,Wunderground v.1.15,2013-06-10 13:41:00,
2013-06-10 08:43:00,61.7,57.5,29.78,NE,53,2.0,2.0,86,0.00,,,0.00,Wunderground v.1.15,2013-06-10 13:43:00,
2013-06-10 08:44:00,61.7,57.5,29.78,ENE,74,5.0,5.0,86,0.00,,,0.00,Wunderground v.1.15,2013-06-10 13:44:00,
2013-06-10 08:47:00,61.7,57.5,29.78,ENE,67,3.0,5.0,86,0.00,,,0.00,Wunderground v.1.15,2013-06-10 13:47:00,
2013-06-10 08:48:00,61.7,57.5,29.78,East,88,1.0,5.0,86,0.00,,,0.00,Wunderground v.1.15,2013-06-10 13:48:00,
2013-06-10 08:51:00,61.6,57.4,29.78,ENE,65,2.0,2.0,86,0.00,,,0.00,Wunderground v.1.15,2013-06-10 13:51:00,
2013-06-10 08:53:00,61.5,57.3,29.78,East,101,1.0,4.0,86,0.00,,,0.00,Wunderground v.1.15,2013-06-10 13:53:00,
2013-06-10 08:54:00,61.5,56.9,29.78,East,93,1.0,4.0,85,0.00,,,0.00,Wunderground v.1.15,2013-06-10 13:54:00,
2013-06-10 08:57:00,61.4,56.8,29.78,SE,132,3.0,4.0,85,0.00,,,0.00,Wunderground v.1.15,2013-06-10 13:57:00,
2013-06-10 08:58:00,61.4,56.8,29.78,East,101,1.0,4.0,85,0.00,,,0.00,Wunderground v.1.15,2013-06-10 13:58:00,
2013-06-10 08:59:00,61.3,56.8,29.78,East,101,0.0,4.0,85,0.00,,,0.00,Wunderground v.1.15,2013-06-10 13:59:00,
2013-06-10 09:00:00,61.3,56.8,29.78,East,101,0.0,4.0,85,0.00,,,0.00,Wunderground v.1.15,2013-06-10 14:00:00,
2013-06-10 09:01:00,61.3,57.1,29.78,East,96,1.0,4.0,86,0.00,,,0.00,Wunderground v.1.15,2013-06-10 14:01:00,
2013-06-10 09:03:00,61.3,57.4,29.79,ENE,72,0.0,3.0,87,0.00,,,0.00,Wunderground v.1.15,2013-06-10 14:03:00,
2013-06-10 09:04:00,61.2,57.0,29.79,ENE,63,2.0,3.0,86,0.00,,,0.00,Wunderground v.1.15,2013-06-10 14:04:00,
2013-06-10 09:07:00,61.1,56.9,29.78,ENE,78,1.0,3.0,86,0.00,,,0.00,Wunderground v.1.15,2013-06-10 14:07:00,
2013-06-10 09:08:00,61.2,57.0,29.78,East,86,0.0,3.0,86,0.00,,,0.00,Wunderground v.1.15,2013-06-10 14:08:00,
2013-06-10 09:13:00,60.9,56.7,29.78,ENE,70,3.0,3.0,86,0.00,,,0.00,Wunderground v.1.15,2013-06-10 14:13:00,
2013-06-10 09:14:00,60.9,56.7,29.79,ENE,57,0.0,3.0,86,0.00,,,0.00,Wunderground v.1.15,2013-06-10 14:14:00,
2013-06-10 09:15:00,60.9,56.7,29.79,East,93,1.0,3.0,86,0.00,,,0.00,Wunderground v.1.15,2013-06-10 14:15:00,
2013-06-10 09:19:00,60.9,56.7,29.79,East,89,0.0,3.0,86,0.00,,,0.00,Wunderground v.1.15,2013-06-10 14:19:00,
2013-06-10 09:21:00,60.9,56.7,29.79,NNE,16,4.0,4.0,86,0.00,,,0.00,Wunderground v.1.15,2013-06-10 14:21:00,
2013-06-10 09:22:00,60.9,56.7,29.79,NNE,30,4.0,4.0,86,0.00,,,0.00,Wunderground v.1.15,2013-06-10 14:22:00,
2013-06-10 09:26:00,60.8,56.9,29.79,East,90,0.0,4.0,87,0.00,,,0.00,Wunderground v.1.15,2013-06-10 14:26:00,
2013-06-10 09:27:00,60.8,56.6,29.79,East,90,0.0,4.0,86,0.00,,,0.00,Wunderground v.1.15,2013-06-10 14:27:00,
2013-06-10 09:29:00,60.8,56.6,29.79,East,90,0.0,4.0,86,0.00,,,0.00,Wunderground v.1.15,2013-06-10 14:29:00,
2013-06-10 09:32:00,60.8,56.6,29.78,ENE,69,4.0,4.0,86,0.00,,,0.00,Wunderground v.1.15,2013-06-10 14:32:00,
2013-06-10 09:33:00,60.8,56.6,29.78,ENE,59,1.0,4.0,86,0.00,,,0.00,Wunderground v.1.15,2013-06-10 14:33:00,
2013-06-10 09:34:00,60.8,56.6,29.78,ENE,70,1.0,4.0,86,0.00,,,0.00,Wunderground v.1.15,2013-06-10 14:34:00,
2013-06-10 09:38:00,60.8,56.6,29.78,ESE,102,0.0,4.0,86,0.00,,,0.00,Wunderground v.1.15,2013-06-10 14:38:00,
2013-06-10 09:39:00,60.8,56.9,29.78,ESE,102,0.0,4.0,87,0.00,,,0.00,Wunderground v.1.15,2013-06-10 14:39:00,
2013-06-10 09:40:00,60.9,57.0,29.78,ESE,102,0.0,4.0,87,0.00,,,0.00,Wunderground v.1.15,2013-06-10 14:40:00,
2013-06-10 09:41:00,60.9,56.7,29.78,ESE,102,0.0,4.0,86,0.00,,,0.00,Wunderground v.1.15,2013-06-10 14:41:00,
2013-06-10 09:45:00,61.2,57.0,29.78,ESE,104,0.0,2.0,86,0.00,,,0.00,Wunderground v.1.15,2013-06-10 14:45:00,
2013-06-10 09:46:00,61.3,57.1,29.78,East,99,0.0,2.0,86,0.00,,,0.00,Wunderground v.1.15,2013-06-10 14:46:00,
2013-06-10 09:47:00,61.4,57.2,29.78,East,100,0.0,2.0,86,0.00,,,0.00,Wunderground v.1.15,2013-06-10 14:47:00,
2013-06-10 09:50:00,61.8,57.9,29.78,NE,49,0.0,3.0,87,0.00,,,0.00,Wunderground v.1.15,2013-06-10 14:50:00,
2013-06-10 09:51:00,62.0,57.8,29.77,NE,50,1.0,3.0,86,0.00,,,0.00,Wunderground v.1.15,2013-06-10 14:51:00,
2013-06-10 09:52:00,62.1,57.5,29.78,ESE,109,0.0,1.0,85,0.00,,,0.00,Wunderground v.1.15,2013-06-10 14:52:00,
2013-06-10 09:56:00,62.7,58.5,29.77,ENE,67,1.0,5.0,86,0.00,,,0.00,Wunderground v.1.15,2013-06-10 14:56:00,
2013-06-10 09:57:00,62.8,58.9,29.77,ENE,78,0.0,5.0,87,0.00,,,0.00,Wunderground v.1.15,2013-06-10 14:57:00,
2013-06-10 09:58:00,63.0,58.4,29.77,NE,34,2.0,5.0,85,0.00,,,0.00,Wunderground v.1.15,2013-06-10 14:58:00,
2013-06-10 09:59:00,63.2,58.9,29.77,NE,34,0.0,5.0,86,0.00,,,0.00,Wunderground v.1.15,2013-06-10 14:59:00,
2013-06-10 10:02:00,63.8,58.5,29.77,ENE,58,2.0,2.0,83,0.00,,,0.00,Wunderground v.1.15,2013-06-10 15:02:00,
2013-06-10 10:03:00,64.0,58.7,29.78,NE,51,0.0,4.0,83,0.00,,,0.00,Wunderground v.1.15,2013-06-10 15:03:00,
2013-06-10 10:04:00,64.0,58.7,29.78,NE,51,1.0,4.0,83,0.00,,,0.00,Wunderground v.1.15,2013-06-10 15:04:00,
2013-06-10 10:05:00,64.2,58.9,29.78,NE,51,1.0,4.0,83,0.00,,,0.00,Wunderground v.1.15,2013-06-10 15:05:00,
2013-06-10 10:08:00,64.4,58.8,29.78,East,97,0.0,4.0,82,0.00,,,0.00,Wunderground v.1.15,2013-06-10 15:08:00,
2013-06-10 10:10:00,64.4,58.4,29.78,East,96,0.0,4.0,81,0.00,,,0.00,Wunderground v.1.15,2013-06-10 15:10:00,
2013-06-10 10:11:00,64.4,58.8,29.78,ENE,66,1.0,4.0,82,0.00,,,0.00,Wunderground v.1.15,2013-06-10 15:11:00,
2013-06-10 10:12:00,64.4,59.1,29.78,ENE,59,4.0,4.0,83,0.00,,,0.00,Wunderground v.1.15,2013-06-10 15:12:00,
2013-06-10 10:14:00,64.3,58.7,29.78,ESE,105,1.0,4.0,82,0.00,,,0.00,Wunderground v.1.15,2013-06-10 15:14:00,
2013-06-10 10:15:00,64.2,58.6,29.78,East,99,1.0,4.0,82,0.00,,,0.00,Wunderground v.1.15,2013-06-10 15:15:00,
2013-06-10 10:16:00,64.2,58.6,29.77,East,99,0.0,4.0,82,0.00,,,0.00,Wunderground v.1.15,2013-06-10 15:16:00,
2013-06-10 10:17:00,64.2,58.6,29.77,NE,51,1.0,4.0,82,0.00,,,0.00,Wunderground v.1.15,2013-06-10 15:17:00,
2013-06-10 10:19:00,64.2,58.6,29.77,NE,54,0.0,4.0,82,0.00,,,0.00,Wunderground v.1.15,2013-06-10 15:19:00,
2013-06-10 10:21:00,64.2,58.2,29.77,NE,54,0.0,4.0,81,0.00,,,0.00,Wunderground v.1.15,2013-06-10 15:21:00,
2013-06-10 10:22:00,64.2,58.6,29.77,East,82,1.0,1.0,82,0.00,,,0.00,Wunderground v.1.15,2013-06-10 15:22:00,
2013-06-10 10:23:00,64.2,58.6,29.77,ENE,76,3.0,3.0,82,0.00,,,0.00,Wunderground v.1.15,2013-06-10 15:23:00,
2013-06-10 10:25:00,64.3,58.7,29.77,ENE,71,3.0,3.0,82,0.00,,,0.00,Wunderground v.1.15,2013-06-10 15:25:00,
2013-06-10 10:26:00,64.3,59.0,29.77,East,82,0.0,3.0,83,0.00,,,0.00,Wunderground v.1.15,2013-06-10 15:26:00,
2013-06-10 10:28:00,64.6,59.0,29.77,ESE,103,1.0,3.0,82,0.00,,,0.00,Wunderground v.1.15,2013-06-10 15:28:00,
2013-06-10 10:29:00,64.8,59.2,29.77,ENE,59,1.0,3.0,82,0.00,,,0.00,Wunderground v.1.15,2013-06-10 15:29:00,
2013-06-10 10:31:00,65.0,59.4,29.77,ENE,58,1.0,3.0,82,0.00,,,0.00,Wunderground v.1.15,2013-06-10 15:31:00,
2013-06-10 10:32:00,65.3,59.3,29.77,SE,134,3.0,4.0,81,0.00,,,0.00,Wunderground v.1.15,2013-06-10 15:32:00,
2013-06-10 10:33:00,65.3,59.3,29.77,SE,139,3.0,4.0,81,0.00,,,0.00,Wunderground v.1.15,2013-06-10 15:33:00,
2013-06-10 10:34:00,65.4,59.8,29.78,NE,46,3.0,4.0,82,0.00,,,0.00,Wunderground v.1.15,2013-06-10 15:34:00,
2013-06-10 10:37:00,65.7,60.1,29.77,ENE,59,3.0,4.0,82,0.00,,,0.00,Wunderground v.1.15,2013-06-10 15:37:00,
2013-06-10 10:38:00,65.8,60.2,29.77,ENE,57,2.0,4.0,82,0.00,,,0.00,Wunderground v.1.15,2013-06-10 15:38:00,
2013-06-10 10:39:00,65.9,60.2,29.77,East,90,4.0,4.0,82,0.00,,,0.00,Wunderground v.1.15,2013-06-10 15:39:00,
2013-06-10 10:43:00,66.2,59.8,29.77,ESE,111,0.0,5.0,80,0.00,,,0.00,Wunderground v.1.15,2013-06-10 15:43:00,
2013-06-10 10:44:00,66.2,59.5,29.77,ESE,111,0.0,5.0,79,0.00,,,0.00,Wunderground v.1.15,2013-06-10 15:44:00,
2013-06-10 10:45:00,66.1,59.7,29.77,East,86,0.0,5.0,80,0.00,,,0.00,Wunderground v.1.15,2013-06-10 15:45:00,
2013-06-10 10:48:00,66.2,59.5,29.77,East,86,0.0,5.0,79,0.00,,,0.00,Wunderground v.1.15,2013-06-10 15:48:00,
2013-06-10 10:50:00,66.2,59.8,29.77,ESE,111,5.0,5.0,80,0.00,,,0.00,Wunderground v.1.15,2013-06-10 15:50:00,
2013-06-10 10:53:00,66.2,59.8,29.78,East,99,0.0,1.0,80,0.00,,,0.00,Wunderground v.1.15,2013-06-10 15:53:00,
2013-06-10 10:54:00,66.2,59.5,29.77,East,87,1.0,2.0,79,0.00,,,0.00,Wunderground v.1.15,2013-06-10 15:54:00,
2013-06-10 10:55:00,66.2,59.5,29.77,ESE,113,1.0,2.0,79,0.00,,,0.00,Wunderground v.1.15,2013-06-10 15:55:00,
2013-06-10 10:58:00,66.5,60.1,29.78,ESE,111,0.0,2.0,80,0.00,,,0.00,Wunderground v.1.15,2013-06-10 15:58:00,
2013-06-10 11:00:00,66.5,59.8,29.77,ESE,112,3.0,3.0,79,0.00,,,0.00,Wunderground v.1.15,2013-06-10 16:00:00,
2013-06-10 11:01:00,66.6,60.2,29.78,ESE,109,2.0,3.0,80,0.00,,,0.00,Wunderground v.1.15,2013-06-10 16:01:00,
2013-06-10 11:02:00,66.7,60.0,29.78,ESE,116,0.0,2.0,79,0.00,,,0.00,Wunderground v.1.15,2013-06-10 16:02:00,
2013-06-10 11:05:00,66.5,59.8,29.78,ESE,121,4.0,4.0,79,0.00,,,0.00,Wunderground v.1.15,2013-06-10 16:05:00,
2013-06-10 11:06:00,66.5,60.1,29.78,East,97,0.0,4.0,80,0.00,,,0.00,Wunderground v.1.15,2013-06-10 16:06:00,
2013-06-10 11:08:00,66.4,60.0,29.78,SE,141,0.0,4.0,80,0.00,,,0.00,Wunderground v.1.15,2013-06-10 16:08:00,
2013-06-10 11:10:00,66.5,59.8,29.78,SE,133,0.0,4.0,79,0.00,,,0.00,Wunderground v.1.15,2013-06-10 16:10:00,
2013-06-10 11:12:00,66.6,60.2,29.78,NE,39,1.0,1.0,80,0.00,,,0.00,Wunderground v.1.15,2013-06-10 16:12:00,
2013-06-10 11:13:00,66.6,59.9,29.78,NE,50,0.0,1.0,79,0.00,,,0.00,Wunderground v.1.15,2013-06-10 16:13:00,
2013-06-10 11:14:00,66.8,60.4,29.78,East,85,2.0,2.0,80,0.00,,,0.00,Wunderground v.1.15,2013-06-10 16:14:00,
2013-06-10 11:18:00,66.9,60.5,29.78,ENE,61,1.0,3.0,80,0.00,,,0.00,Wunderground v.1.15,2013-06-10 16:18:00,
2013-06-10 11:19:00,66.9,60.2,29.78,ENE,61,0.0,3.0,79,0.00,,,0.00,Wunderground v.1.15,2013-06-10 16:19:00,
2013-06-10 11:24:00,67.4,60.7,29.78,East,87,1.0,2.0,79,0.00,,,0.00,Wunderground v.1.15,2013-06-10 16:24:00,
2013-06-10 11:25:00,67.5,60.8,29.78,SE,128,0.0,3.0,79,0.00,,,0.00,Wunderground v.1.15,2013-06-10 16:25:00,
2013-06-10 11:26:00,67.5,60.8,29.78,SE,128,0.0,3.0,79,0.00,,,0.00,Wunderground v.1.15,2013-06-10 16:26:00,
2013-06-10 11:31:00,67.4,60.3,29.78,ENE,76,0.0,3.0,78,0.00,,,0.00,Wunderground v.1.15,2013-06-10 16:31:00,
2013-06-10 11:32:00,67.4,60.7,29.78,ENE,76,1.0,1.0,79,0.00,,,0.00,Wunderground v.1.15,2013-06-10 16:32:00,
2013-06-10 11:33:00,67.4,60.3,29.78,SE,128,4.0,4.0,78,0.00,,,0.00,Wunderground v.1.15,2013-06-10 16:33:00,
2013-06-10 11:37:00,67.5,61.1,29.78,SE,132,3.0,4.0,80,0.00,,,0.00,Wunderground v.1.15,2013-06-10 16:37:00,
2013-06-10 11:39:00,67.6,60.1,29.78,SSE,155,3.0,4.0,77,0.00,,,0.00,Wunderground v.1.15,2013-06-10 16:39:00,
2013-06-10 11:41:00,67.8,60.7,29.78,SE,134,0.0,4.0,78,0.00,,,0.00,Wunderground v.1.15,2013-06-10 16:41:00,
2013-06-10 11:43:00,68.0,61.2,29.78,ESE,114,0.0,1.0,79,0.00,,,0.00,Wunderground v.1.15,2013-06-10 16:43:00,
2013-06-10 11:44:00,68.0,60.9,29.78,ESE,114,0.0,2.0,78,0.00,,,0.00,Wunderground v.1.15,2013-06-10 16:44:00,
2013-06-10 11:45:00,68.1,61.0,29.78,ESE,113,1.0,2.0,78,0.00,,,0.00,Wunderground v.1.15,2013-06-10 16:45:00,
2013-06-10 11:47:00,68.2,61.1,29.78,East,83,0.0,3.0,78,0.00,,,0.00,Wunderground v.1.15,2013-06-10 16:47:00,
2013-06-10 11:48:00,68.2,61.1,29.78,ENE,71,1.0,3.0,78,0.00,,,0.00,Wunderground v.1.15,2013-06-10 16:48:00,
2013-06-10 11:50:00,68.3,61.9,29.78,ENE,69,0.0,3.0,80,0.00,,,0.00,Wunderground v.1.15,2013-06-10 16:50:00,
2013-06-10 11:51:00,68.3,61.5,29.78,ENE,69,0.0,3.0,79,0.00,,,0.00,Wunderground v.1.15,2013-06-10 16:51:00,
2013-06-10 11:53:00,68.4,61.6,29.78,East,94,0.0,1.0,79,0.00,,,0.00,Wunderground v.1.15,2013-06-10 16:53:00,
2013-06-10 11:55:00,68.4,61.3,29.78,East,91,0.0,1.0,78,0.00,,,0.00,Wunderground v.1.15,2013-06-10 16:55:00,
2013-06-10 11:57:00,68.5,61.0,29.78,East,93,0.0,1.0,77,0.00,,,0.00,Wunderground v.1.15,2013-06-10 16:57:00,
2013-06-10 11:58:00,68.5,61.0,29.78,East,93,0.0,1.0,77,0.00,,,0.00,Wunderground v.1.15,2013-06-10 16:58:00,
2013-06-10 11:59:00,68.5,61.4,29.78,East,93,0.0,1.0,78,0.00,,,0.00,Wunderground v.1.15,2013-06-10 16:59:00,
2013-06-10 12:00:00,67.5,60.4,29.78,ENE,67,1.0,7.0,78,0.00,,,-99.99,WeatherLink 5.9.3,2013-06-10 17:00:00,
2013-06-10 12:01:00,68.5,61.4,29.78,ENE,71,1.0,1.0,78,0.00,,,0.00,Wunderground v.1.15,2013-06-10 17:01:00,
2013-06-10 12:04:00,68.6,61.1,29.78,ENE,71,0.0,0.0,77,0.00,,,0.00,Wunderground v.1.15,2013-06-10 17:04:00,
2013-06-10 12:05:00,68.6,61.5,29.78,ENE,76,2.0,2.0,78,0.00,,,0.00,Wunderground v.1.15,2013-06-10 17:05:00,
2013-06-10 12:06:00,68.4,61.3,29.78,East,81,0.0,2.0,78,0.00,,,0.00,Wunderground v.1.15,2013-06-10 17:06:00,
2013-06-10 12:07:00,68.3,61.2,29.78,East,81,0.0,2.0,78,0.00,,,0.00,Wunderground v.1.15,2013-06-10 17:07:00,
2013-06-10 12:09:00,68.1,61.0,29.78,East,96,2.0,2.0,78,0.00,,,0.00,Wunderground v.1.15,2013-06-10 17:09:00,
2013-06-10 12:11:00,67.9,60.8,29.78,East,98,0.0,0.0,78,0.00,,,0.00,Wunderground v.1.15,2013-06-10 17:11:00,
2013-06-10 12:13:00,67.8,61.0,29.78,East,98,0.0,0.0,79,0.00,,,0.00,Wunderground v.1.15,2013-06-10 17:13:00,
2013-06-10 12:14:00,67.6,60.9,29.78,East,80,0.0,3.0,79,0.00,,,0.00,Wunderground v.1.15,2013-06-10 17:14:00,
2013-06-10 12:18:00,67.5,61.1,29.78,East,80,0.0,3.0,80,0.00,,,0.00,Wunderground v.1.15,2013-06-10 17:18:00,
2013-06-10 12:21:00,67.4,61.4,29.78,East,80,0.0,3.0,81,0.00,,,0.00,Wunderground v.1.15,2013-06-10 17:21:00,
2013-06-10 12:23:00,67.4,61.0,29.78,East,82,0.0,2.0,80,0.00,,,0.00,Wunderground v.1.15,2013-06-10 17:23:00,
2013-06-10 12:26:00,67.4,60.7,29.78,East,82,0.0,2.0,79,0.00,,,0.00,Wunderground v.1.15,2013-06-10 17:26:00,
2013-06-10 12:27:00,67.3,61.3,29.78,East,80,1.0,2.0,81,0.00,,,0.00,Wunderground v.1.15,2013-06-10 17:27:00,
2013-06-10 12:28:00,67.4,61.4,29.78,East,80,0.0,2.0,81,0.00,,,0.00,Wunderground v.1.15,2013-06-10 17:28:00,
2013-06-10 12:29:00,67.4,61.0,29.78,East,80,0.0,2.0,80,0.00,,,0.00,Wunderground v.1.15,2013-06-10 17:29:00,
2013-06-10 12:31:00,67.5,61.1,29.78,East,82,0.0,0.0,80,0.00,,,0.00,Wunderground v.1.15,2013-06-10 17:31:00,
2013-06-10 12:32:00,67.4,61.0,29.78,East,83,1.0,1.0,80,0.00,,,0.00,Wunderground v.1.15,2013-06-10 17:32:00,
2013-06-10 12:34:00,67.3,60.9,29.78,East,84,0.0,1.0,80,0.00,,,0.00,Wunderground v.1.15,2013-06-10 17:34:00,
2013-06-10 12:36:00,67.4,61.4,29.78,East,84,0.0,2.0,81,0.00,,,0.00,Wunderground v.1.15,2013-06-10 17:36:00,
2013-06-10 12:37:00,67.5,61.5,29.77,East,84,0.0,2.0,81,0.00,,,0.00,Wunderground v.1.15,2013-06-10 17:37:00,
2013-06-10 12:39:00,67.7,61.3,29.77,East,83,0.0,2.0,80,0.00,,,0.00,Wunderground v.1.15,2013-06-10 17:39:00,
2013-06-10 12:40:00,67.8,61.8,29.77,East,84,0.0,2.0,81,0.00,,,0.00,Wunderground v.1.15,2013-06-10 17:40:00,
2013-06-10 12:43:00,68.5,62.1,29.77,ESE,108,0.0,1.0,80,0.00,,,0.00,Wunderground v.1.15,2013-06-10 17:43:00,
2013-06-10 12:44:00,68.6,62.2,29.77,ESE,108,0.0,1.0,80,0.00,,,0.00,Wunderground v.1.15,2013-06-10 17:44:00,
2013-06-10 12:45:00,68.7,62.3,29.77,East,84,1.0,2.0,80,0.00,,,0.00,Wunderground v.1.15,2013-06-10 17:45:00,
2013-06-10 12:49:00,69.0,62.6,29.77,East,100,0.0,3.0,80,0.00,,,0.00,Wunderground v.1.15,2013-06-10 17:49:00,
2013-06-10 12:51:00,69.1,62.3,29.77,East,100,0.0,3.0,79,0.00,,,0.00,Wunderground v.1.15,2013-06-10 17:51:00,
2013-06-10 12:53:00,69.4,63.0,29.77,East,87,1.0,1.0,80,0.00,,,0.00,Wunderground v.1.15,2013-06-10 17:53:00,
2013-06-10 12:54:00,69.5,63.4,29.77,East,86,1.0,1.0,81,0.00,,,0.00,Wunderground v.1.15,2013-06-10 17:54:00,
2013-06-10 12:57:00,70.2,63.7,29.77,ESE,108,0.0,3.0,80,0.00,,,0.00,Wunderground v.1.15,2013-06-10 17:57:00,
2013-06-10 12:58:00,70.3,63.8,29.77,ESE,104,2.0,3.0,80,0.00,,,0.00,Wunderground v.1.15,2013-06-10 17:58:00,
2013-06-10 13:00:00,68.3,60.4,29.76,East,90,0.0,4.0,76,0.00,,,-99.99,WeatherLink 5.9.3,2013-06-10 18:00:00,
2013-06-10 13:02:00,70.9,63.0,29.76,ESE,109,0.0,1.0,76,0.00,,,0.00,Wunderground v.1.15,2013-06-10 18:02:00,
2013-06-10 13:03:00,71.0,63.1,29.76,ESE,109,0.0,1.0,76,0.00,,,0.00,Wunderground v.1.15,2013-06-10 18:03:00,
2013-06-10 13:04:00,71.2,64.0,29.76,ENE,74,2.0,2.0,78,0.00,,,0.00,Wunderground v.1.15,2013-06-10 18:04:00,
2013-06-10 13:06:00,71.7,64.8,29.76,ENE,60,0.0,3.0,79,0.00,,,0.00,Wunderground v.1.15,2013-06-10 18:06:00,
2013-06-10 13:09:00,72.1,65.2,29.76,NE,49,4.0,4.0,79,0.00,,,0.00,Wunderground v.1.15,2013-06-10 18:09:00,
2013-06-10 13:11:00,72.4,65.9,29.76,SE,127,0.0,4.0,80,0.00,,,0.00,Wunderground v.1.15,2013-06-10 18:11:00,
2013-06-10 13:12:00,72.5,65.6,29.76,East,99,0.0,3.0,79,0.00,,,0.00,Wunderground v.1.15,2013-06-10 18:12:00,
2013-06-10 13:14:00,72.5,64.5,29.76,East,100,0.0,3.0,76,0.00,,,0.00,Wunderground v.1.15,2013-06-10 18:14:00,
2013-06-10 13:15:00,72.6,65.0,29.76,East,100,0.0,3.0,77,0.00,,,0.00,Wunderground v.1.15,2013-06-10 18:15:00,
2013-06-10 13:16:00,72.6,65.7,29.76,ENE,68,0.0,3.0,79,0.00,,,0.00,Wunderground v.1.15,2013-06-10 18:16:00,
2013-06-10 13:17:00,72.5,64.1,29.76,ESE,114,0.0,3.0,75,0.00,,,0.00,Wunderground v.1.15,2013-06-10 18:17:00,
2013-06-10 13:19:00,72.6,65.3,29.76,East,101,0.0,3.0,78,0.00,,,0.00,Wunderground v.1.15,2013-06-10 18:19:00,
2013-06-10 13:22:00,72.3,63.9,29.75,ESE,103,0.0,1.0,75,0.00,,,0.00,Wunderground v.1.15,2013-06-10 18:22:00,
2013-06-10 13:23:00,72.3,64.3,29.76,SE,146,3.0,3.0,76,0.00,,,0.00,Wunderground v.1.15,2013-06-10 18:23:00,
2013-06-10 13:24:00,72.1,63.7,29.75,SE,140,4.0,4.0,75,0.00,,,0.00,Wunderground v.1.15,2013-06-10 18:24:00,
2013-06-10 13:25:00,72.1,63.7,29.75,SE,140,2.0,4.0,75,0.00,,,0.00,Wunderground v.1.15,2013-06-10 18:25:00,
2013-06-10 13:27:00,72.0,64.0,29.75,SE,140,5.0,5.0,76,0.00,,,0.00,Wunderground v.1.15,2013-06-10 18:27:00,
2013-06-10 13:29:00,72.1,64.5,29.75,SE,142,2.0,5.0,77,0.00,,,0.00,Wunderground v.1.15,2013-06-10 18:29:00,
2013-06-10 13:30:00,72.1,64.5,29.75,SE,142,0.0,5.0,77,0.00,,,0.00,Wunderground v.1.15,2013-06-10 18:30:00,
2013-06-10 13:33:00,72.4,64.4,29.75,East,96,0.0,5.0,76,0.00,,,0.00,Wunderground v.1.15,2013-06-10 18:33:00,
2013-06-10 13:34:00,72.5,64.5,29.75,ESE,104,0.0,5.0,76,0.00,,,0.00,Wunderground v.1.15,2013-06-10 18:34:00,
2013-06-10 13:35:00,72.5,64.1,29.75,ESE,122,4.0,5.0,75,0.00,,,0.00,Wunderground v.1.15,2013-06-10 18:35:00,
2013-06-10 13:37:00,72.5,63.7,29.76,ESE,107,0.0,6.0,74,0.00,,,0.00,Wunderground v.1.15,2013-06-10 18:37:00,
2013-06-10 13:38:00,72.5,64.5,29.75,ESE,121,1.0,6.0,76,0.00,,,0.00,Wunderground v.1.15,2013-06-10 18:38:00,
2013-06-10 13:40:00,72.6,64.6,29.75,ESE,120,3.0,6.0,76,0.00,,,0.00,Wunderground v.1.15,2013-06-10 18:40:00,
2013-06-10 13:41:00,72.7,63.9,29.75,SSE,147,6.0,6.0,74,0.00,,,0.00,Wunderground v.1.15,2013-06-10 18:41:00,
2013-06-10 13:45:00,73.0,64.6,29.75,SSE,167,2.0,6.0,75,0.00,,,0.00,Wunderground v.1.15,2013-06-10 18:45:00,
2013-06-10 13:46:00,73.1,64.3,29.75,SSE,153,1.0,6.0,74,0.00,,,0.00,Wunderground v.1.15,2013-06-10 18:46:00,
2013-06-10 13:47:00,73.2,65.2,29.75,ESE,112,1.0,6.0,76,0.00,,,0.00,Wunderground v.1.15,2013-06-10 18:47:00,
2013-06-10 13:48:00,73.2,64.8,29.75,SSE,155,3.0,6.0,75,0.00,,,0.00,Wunderground v.1.15,2013-06-10 18:48:00,
2013-06-10 13:50:00,73.0,64.2,29.75,SE,134,1.0,6.0,74,0.00,,,0.00,Wunderground v.1.15,2013-06-10 18:50:00,
2013-06-10 13:52:00,72.9,64.5,29.75,SE,131,0.0,2.0,75,0.00,,,0.00,Wunderground v.1.15,2013-06-10 18:52:00,
2013-06-10 13:54:00,73.0,65.4,29.75,SE,138,3.0,3.0,77,0.00,,,0.00,Wunderground v.1.15,2013-06-10 18:54:00,
2013-06-10 13:55:00,73.0,65.4,29.75,ESE,107,1.0,3.0,77,0.00,,,0.00,Wunderground v.1.15,2013-06-10 18:55:00,
2013-06-10 13:57:00,73.4,64.6,29.75,SE,146,4.0,9.0,74,0.00,,,0.00,Wunderground v.1.15,2013-06-10 18:57:00,
2013-06-10 13:59:00,73.5,65.8,29.75,East,98,1.0,9.0,77,0.00,,,0.00,Wunderground v.1.15,2013-06-10 18:59:00,
2013-06-10 14:00:00,72.6,63.4,29.75,SE,135,2.0,10.0,73,0.00,,,-99.99,WeatherLink 5.9.3,2013-06-10 19:00:00,
2013-06-10 14:01:00,73.5,63.9,29.75,East,82,1.0,2.0,72,0.00,,,0.00,Wunderground v.1.15,2013-06-10 19:01:00,
2013-06-10 14:03:00,73.4,64.2,29.75,SSE,147,3.0,7.0,73,0.00,,,0.00,Wunderground v.1.15,2013-06-10 19:03:00,
2013-06-10 14:04:00,73.4,65.0,29.75,ESE,113,0.0,7.0,75,0.00,,,0.00,Wunderground v.1.15,2013-06-10 19:04:00,
2013-06-10 14:06:00,73.6,64.8,29.75,ESE,111,2.0,7.0,74,0.00,,,0.00,Wunderground v.1.15,2013-06-10 19:06:00,
2013-06-10 14:07:00,73.7,66.0,29.75,SE,146,0.0,7.0,77,0.00,,,0.00,Wunderground v.1.15,2013-06-10 19:07:00,
2013-06-10 14:08:00,73.8,65.0,29.75,SE,144,0.0,7.0,74,0.00,,,0.00,Wunderground v.1.15,2013-06-10 19:08:00,
2013-06-10 14:10:00,73.7,64.5,29.75,SE,136,4.0,7.0,73,0.00,,,0.00,Wunderground v.1.15,2013-06-10 19:10:00,
2013-06-10 14:11:00,73.8,65.0,29.75,SE,132,3.0,3.0,74,0.00,,,0.00,Wunderground v.1.15,2013-06-10 19:11:00,
2013-06-10 14:12:00,73.8,65.0,29.75,SE,132,0.0,3.0,74,0.00,,,0.00,Wunderground v.1.15,2013-06-10 19:12:00,
2013-06-10 14:16:00,73.3,63.7,29.75,SE,126,5.0,5.0,72,0.00,,,0.00,Wunderground v.1.15,2013-06-10 19:16:00,
2013-06-10 14:17:00,73.2,64.0,29.75,SE,126,3.0,5.0,73,0.00,,,0.00,Wunderground v.1.15,2013-06-10 19:17:00,
2013-06-10 14:18:00,73.1,63.9,29.75,SE,126,1.0,5.0,73,0.00,,,0.00,Wunderground v.1.15,2013-06-10 19:18:00,
2013-06-10 14:21:00,73.0,64.2,29.75,SE,126,0.0,2.0,74,0.00,,,0.00,Wunderground v.1.15,2013-06-10 19:21:00,
2013-06-10 14:23:00,72.9,64.5,29.75,ESE,123,0.0,3.0,75,0.00,,,0.00,Wunderground v.1.15,2013-06-10 19:23:00,
2013-06-10 14:24:00,72.9,63.7,29.75,SSE,151,1.0,3.0,73,0.00,,,0.00,Wunderground v.1.15,2013-06-10 19:24:00,
2013-06-10 14:28:00,72.9,64.1,29.75,East,86,1.0,3.0,74,0.00,,,0.00,Wunderground v.1.15,2013-06-10 19:28:00,
2013-06-10 14:30:00,73.0,64.2,29.75,ESE,113,2.0,4.0,74,0.00,,,0.00,Wunderground v.1.15,2013-06-10 19:30:00,
2013-06-10 14:31:00,73.1,64.3,29.75,ESE,121,2.0,4.0,74,0.00,,,0.00,Wunderground v.1.15,2013-06-10 19:31:00,
2013-06-10 14:36:00,73.2,64.8,29.74,East,100,0.0,1.0,75,0.00,,,0.00,Wunderground v.1.15,2013-06-10 19:36:00,
2013-06-10 14:37:00,73.2,64.0,29.74,NE,37,3.0,3.0,73,0.00,,,0.00,Wunderground v.1.15,2013-06-10 19:37:00,
2013-06-10 14:38:00,73.3,64.9,29.74,ESE,113,3.0,3.0,75,0.00,,,0.00,Wunderground v.1.15,2013-06-10 19:38:00,
2013-06-10 14:42:00,73.4,64.2,29.74,SE,126,0.0,1.0,73,0.00,,,0.00,Wunderground v.1.15,2013-06-10 19:42:00,
2013-06-10 14:43:00,73.4,64.2,29.75,SE,125,0.0,2.0,73,0.00,,,0.00,Wunderground v.1.15,2013-06-10 19:43:00,
2013-06-10 14:44:00,73.4,63.8,29.75,East,90,0.0,2.0,72,0.00,,,0.00,Wunderground v.1.15,2013-06-10 19:44:00,
2013-06-10 14:48:00,73.4,64.6,29.75,ENE,78,2.0,2.0,74,0.00,,,0.00,Wunderground v.1.15,2013-06-10 19:48:00,
2013-06-10 14:49:00,73.5,64.3,29.74,East,82,1.0,2.0,73,0.00,,,0.00,Wunderground v.1.15,2013-06-10 19:49:00,
2013-06-10 14:51:00,73.6,64.0,29.75,ESE,113,1.0,1.0,72,0.00,,,0.00,Wunderground v.1.15,2013-06-10 19:51:00,
2013-06-10 14:54:00,73.8,64.2,29.75,ESE,113,0.0,1.0,72,0.00,,,0.00,Wunderground v.1.15,2013-06-10 19:54:00,
2013-06-10 14:55:00,73.9,64.3,29.75,ESE,103,0.0,1.0,72,0.00,,,0.00,Wunderground v.1.15,2013-06-10 19:55:00,
2013-06-10 14:56:00,73.9,64.3,29.75,ESE,106,1.0,1.0,72,0.00,,,0.00,Wunderground v.1.15,2013-06-10 19:56:00,
2013-06-10 14:59:00,74.1,64.1,29.75,SSE,148,1.0,4.0,71,0.00,,,0.00,Wunderground v.1.15,2013-06-10 19:59:00,
2013-06-10 15:00:00,74.0,64.0,29.75,SE,146,0.0,4.0,71,0.00,,,0.00,Wunderground v.1.15,2013-06-10 20:00:00,
2013-06-10 15:01:00,74.0,64.0,29.75,SE,146,1.0,4.0,71,0.00,,,0.00,Wunderground v.1.15,2013-06-10 20:01:00,
2013-06-10 15:02:00,74.0,64.4,29.75,ESE,103,0.0,3.0,72,0.00,,,0.00,Wunderground v.1.15,2013-06-10 20:02:00,
2013-06-10 15:05:00,73.9,64.7,29.75,ESE,105,0.0,3.0,73,0.00,,,0.00,Wunderground v.1.15,2013-06-10 20:05:00,
2013-06-10 15:06:00,74.0,64.4,29.76,ESE,105,0.0,3.0,72,0.00,,,0.00,Wunderground v.1.15,2013-06-10 20:06:00,
2013-06-10 15:07:00,74.0,64.0,29.76,ESE,121,1.0,3.0,71,0.00,,,0.00,Wunderground v.1.15,2013-06-10 20:07:00,
2013-06-10 15:08:00,74.1,64.1,29.76,ESE,121,0.0,3.0,71,0.00,,,0.00,Wunderground v.1.15,2013-06-10 20:08:00,
2013-06-10 15:09:00,74.1,65.3,29.75,SE,124,0.0,3.0,74,0.00,,,0.00,Wunderground v.1.15,2013-06-10 20:09:00,
2013-06-10 15:11:00,74.3,64.7,29.75,ENE,59,1.0,1.0,72,0.00,,,0.00,Wunderground v.1.15,2013-06-10 20:11:00,
2013-06-10 15:13:00,74.4,64.8,29.75,East,79,1.0,1.0,72,0.00,,,0.00,Wunderground v.1.15,2013-06-10 20:13:00,
2013-06-10 15:14:00,74.4,63.6,29.75,East,83,0.0,2.0,69,0.00,,,0.00,Wunderground v.1.15,2013-06-10 20:14:00,
2013-06-10 15:16:00,74.4,64.0,29.75,East,84,0.0,2.0,70,0.00,,,0.00,Wunderground v.1.15,2013-06-10 20:16:00,
2013-06-10 15:18:00,74.3,63.9,29.75,NE,41,4.0,6.0,70,0.00,,,0.00,Wunderground v.1.15,2013-06-10 20:18:00,
2013-06-10 15:19:00,74.3,64.3,29.75,NNE,28,3.0,6.0,71,0.00,,,0.00,Wunderground v.1.15,2013-06-10 20:19:00,
2013-06-10 15:21:00,74.4,64.8,29.75,NNE,32,2.0,6.0,72,0.00,,,0.00,Wunderground v.1.15,2013-06-10 20:21:00,
2013-06-10 15:22:00,74.4,64.8,29.75,East,91,1.0,2.0,72,0.00,,,0.00,Wunderground v.1.15,2013-06-10 20:22:00,
2013-06-10 15:24:00,74.4,64.0,29.75,NE,51,2.0,3.0,70,0.00,,,0.00,Wunderground v.1.15,2013-06-10 20:24:00,
2013-06-10 15:26:00,74.3,64.3,29.75,ENE,73,1.0,3.0,71,0.00,,,0.00,Wunderground v.1.15,2013-06-10 20:26:00,
2013-06-10 15:27:00,74.3,65.1,29.75,NE,52,1.0,6.0,73,0.00,,,0.00,Wunderground v.1.15,2013-06-10 20:27:00,
2013-06-10 15:29:00,74.3,65.1,29.75,East,96,1.0,6.0,73,0.00,,,0.00,Wunderground v.1.15,2013-06-10 20:29:00,
2013-06-10 15:31:00,74.4,64.8,29.75,East,94,0.0,6.0,72,0.00,,,0.00,Wunderground v.1.15,2013-06-10 20:31:00,
2013-06-10 15:32:00,74.5,64.9,29.75,East,91,0.0,2.0,72,0.00,,,0.00,Wunderground v.1.15,2013-06-10 20:32:00,
2013-06-10 15:33:00,74.5,64.9,29.75,East,91,0.0,2.0,72,0.00,,,0.00,Wunderground v.1.15,2013-06-10 20:33:00,
2013-06-10 15:35:00,74.7,65.9,29.75,East,91,0.0,2.0,74,0.00,,,0.00,Wunderground v.1.15,2013-06-10 20:35:00,
2013-06-10 15:36:00,74.7,64.3,29.75,East,91,0.0,2.0,70,0.00,,,0.00,Wunderground v.1.15,2013-06-10 20:36:00,
2013-06-10 15:38:00,74.8,65.2,29.75,East,92,0.0,2.0,72,0.00,,,0.00,Wunderground v.1.15,2013-06-10 20:38:00,
2013-06-10 15:39:00,74.9,64.5,29.75,East,84,1.0,2.0,70,0.00,,,0.00,Wunderground v.1.15,2013-06-10 20:39:00,
2013-06-10 15:40:00,75.0,65.4,29.75,East,85,0.0,2.0,72,0.00,,,0.00,Wunderground v.1.15,2013-06-10 20:40:00,
2013-06-10 15:41:00,75.1,65.9,29.75,ENE,61,0.0,0.0,73,0.00,,,0.00,Wunderground v.1.15,2013-06-10 20:41:00,
2013-06-10 15:43:00,75.3,65.6,29.75,ESE,115,0.0,1.0,72,0.00,,,0.00,Wunderground v.1.15,2013-06-10 20:43:00,
2013-06-10 15:44:00,75.4,64.5,29.75,ESE,115,0.0,1.0,69,0.00,,,0.00,Wunderground v.1.15,2013-06-10 20:44:00,
2013-06-10 15:46:00,75.5,65.0,29.74,East,94,0.0,1.0,70,0.00,,,0.00,Wunderground v.1.15,2013-06-10 20:46:00,
2013-06-10 15:48:00,75.6,64.3,29.74,SE,131,3.0,3.0,68,0.00,,,0.00,Wunderground v.1.15,2013-06-10 20:48:00,
2013-06-10 15:49:00,75.5,64.6,29.74,ESE,113,1.0,3.0,69,0.00,,,0.00,Wunderground v.1.15,2013-06-10 20:49:00,
2013-06-10 15:51:00,75.2,64.7,29.74,ESE,123,3.0,3.0,70,0.00,,,0.00,Wunderground v.1.15,2013-06-10 20:51:00,
2013-06-10 15:53:00,75.1,64.6,29.74,ESE,123,0.0,1.0,70,0.00,,,0.00,Wunderground v.1.15,2013-06-10 20:53:00,
2013-06-10 15:54:00,75.3,65.6,29.74,ESE,123,0.0,1.0,72,0.00,,,0.00,Wunderground v.1.15,2013-06-10 20:54:00,
2013-06-10 15:55:00,75.3,66.4,29.74,East,80,1.0,1.0,74,0.00,,,0.00,Wunderground v.1.15,2013-06-10 20:55:00,
2013-06-10 15:57:00,75.4,65.7,29.74,ENE,75,0.0,1.0,72,0.00,,,0.00,Wunderground v.1.15,2013-06-10 20:57:00,
2013-06-10 15:58:00,75.4,65.7,29.74,East,81,1.0,1.0,72,0.00,,,0.00,Wunderground v.1.15,2013-06-10 20:58:00,
2013-06-10 15:59:00,75.5,64.6,29.74,ESE,114,2.0,2.0,69,0.00,,,0.00,Wunderground v.1.15,2013-06-10 20:59:00,
2013-06-10 16:01:00,75.6,64.3,29.74,SE,130,1.0,3.0,68,0.00,,,0.00,Wunderground v.1.15,2013-06-10 21:01:00,
2013-06-10 16:03:00,75.6,64.3,29.74,SE,139,0.0,4.0,68,0.00,,,0.00,Wunderground v.1.15,2013-06-10 21:03:00,
2013-06-10 16:04:00,75.6,64.3,29.74,SE,139,0.0,4.0,68,0.00,,,0.00,Wunderground v.1.15,2013-06-10 21:04:00,
2013-06-10 16:06:00,75.7,65.2,29.74,SE,138,3.0,4.0,70,0.00,,,0.00,Wunderground v.1.15,2013-06-10 21:06:00,
2013-06-10 16:08:00,75.7,64.8,29.74,SSE,161,1.0,5.0,69,0.00,,,0.00,Wunderground v.1.15,2013-06-10 21:08:00,
2013-06-10 16:09:00,75.8,64.5,29.74,SSE,167,0.0,5.0,68,0.00,,,0.00,Wunderground v.1.15,2013-06-10 21:09:00,
2013-06-10 16:11:00,75.8,64.1,29.74,SE,144,1.0,1.0,67,0.00,,,0.00,Wunderground v.1.15,2013-06-10 21:11:00,
2013-06-10 16:13:00,75.8,64.9,29.74,SE,144,2.0,3.0,69,0.00,,,0.00,Wunderground v.1.15,2013-06-10 21:13:00,
2013-06-10 16:14:00,75.7,64.8,29.74,SE,144,0.0,3.0,69,0.00,,,0.00,Wunderground v.1.15,2013-06-10 21:14:00,
2013-06-10 16:15:00,75.8,64.9,29.74,SE,144,0.0,3.0,69,0.00,,,0.00,Wunderground v.1.15,2013-06-10 21:15:00,
2013-06-10 16:16:00,75.8,65.3,29.74,SE,144,0.0,3.0,70,0.00,,,0.00,Wunderground v.1.15,2013-06-10 21:16:00,
2013-06-10 16:18:00,76.0,66.3,29.74,SE,144,0.0,3.0,72,0.00,,,0.00,Wunderground v.1.15,2013-06-10 21:18:00,
2013-06-10 16:20:00,76.2,65.3,29.73,SE,129,1.0,3.0,69,0.00,,,0.00,Wunderground v.1.15,2013-06-10 21:20:00,
2013-06-10 16:21:00,76.3,64.5,29.73,SE,128,0.0,3.0,67,0.00,,,0.00,Wunderground v.1.15,2013-06-10 21:21:00,
2013-06-10 16:22:00,76.4,64.6,29.73,ESE,123,4.0,4.0,67,0.00,,,0.00,Wunderground v.1.15,2013-06-10 21:22:00,
2013-06-10 16:26:00,76.6,65.7,29.74,SSE,165,0.0,4.0,69,0.00,,,0.00,Wunderground v.1.15,2013-06-10 21:26:00,
2013-06-10 16:27:00,76.6,66.1,29.74,SSE,153,0.0,4.0,70,0.00,,,0.00,Wunderground v.1.15,2013-06-10 21:27:00,
2013-06-10 16:28:00,76.6,64.8,29.74,SE,143,3.0,4.0,67,0.00,,,0.00,Wunderground v.1.15,2013-06-10 21:28:00,
2013-06-10 16:32:00,76.5,64.7,29.74,ESE,120,1.0,1.0,67,0.00,,,0.00,Wunderground v.1.15,2013-06-10 21:32:00,
2013-06-10 16:33:00,76.5,64.3,29.74,SSE,162,3.0,3.0,66,0.00,,,0.00,Wunderground v.1.15,2013-06-10 21:33:00,
2013-06-10 16:34:00,76.3,65.0,29.74,SE,141,1.0,3.0,68,0.00,,,0.00,Wunderground v.1.15,2013-06-10 21:34:00,
2013-06-10 16:36:00,76.2,64.4,29.74,SE,135,3.0,3.0,67,0.00,,,0.00,Wunderground v.1.15,2013-06-10 21:36:00,
2013-06-10 16:37:00,76.2,65.3,29.74,SE,134,0.0,4.0,69,0.00,,,0.00,Wunderground v.1.15,2013-06-10 21:37:00,
2013-06-10 16:39:00,76.1,64.3,29.74,SE,134,0.0,4.0,67,0.00,,,0.00,Wunderground v.1.15,2013-06-10 21:39:00,
2013-06-10 16:40:00,76.1,65.2,29.74,SE,136,3.0,4.0,69,0.00,,,0.00,Wunderground v.1.15,2013-06-10 21:40:00,
2013-06-10 16:42:00,75.9,64.6,29.74,SE,136,0.0,1.0,68,0.00,,,0.00,Wunderground v.1.15,2013-06-10 21:42:00,
2013-06-10 16:43:00,75.9,65.0,29.74,SE,136,0.0,1.0,69,0.00,,,0.00,Wunderground v.1.15,2013-06-10 21:43:00,
2013-06-10 16:45:00,75.9,65.8,29.74,SE,139,1.0,2.0,71,0.00,,,0.00,Wunderground v.1.15,2013-06-10 21:45:00,
2013-06-10 16:46:00,75.9,65.0,29.74,SE,130,0.0,2.0,69,0.00,,,0.00,Wunderground v.1.15,2013-06-10 21:46:00,
2013-06-10 16:47:00,75.9,65.0,29.74,SE,130,0.0,2.0,69,0.00,,,0.00,Wunderground v.1.15,2013-06-10 21:47:00,
2013-06-10 16:49:00,75.9,65.0,29.74,SE,130,0.0,3.0,69,0.00,,,0.00,Wunderground v.1.15,2013-06-10 21:49:00,
2013-06-10 16:51:00,75.9,65.0,29.74,SE,130,1.0,3.0,69,0.00,,,0.00,Wunderground v.1.15,2013-06-10 21:51:00,
2013-06-10 16:53:00,75.9,65.0,29.74,SE,142,6.0,6.0,69,0.00,,,0.00,Wunderground v.1.15,2013-06-10 21:53:00,
2013-06-10 16:54:00,75.8,64.9,29.74,SE,142,0.0,6.0,69,0.00,,,0.00,Wunderground v.1.15,2013-06-10 21:54:00,
2013-06-10 16:56:00,75.9,65.0,29.74,SE,142,0.0,6.0,69,0.00,,,0.00,Wunderground v.1.15,2013-06-10 21:56:00,
2013-06-10 16:58:00,76.1,65.2,29.74,SSE,164,0.0,6.0,69,0.00,,,0.00,Wunderground v.1.15,2013-06-10 21:58:00,
2013-06-10 16:59:00,76.1,66.0,29.74,SSE,163,0.0,6.0,71,0.00,,,0.00,Wunderground v.1.15,2013-06-10 21:59:00,
2013-06-10 17:00:00,76.1,65.2,29.74,SE,135,1.0,7.0,69,0.00,,,-99.99,WeatherLink 5.9.3,2013-06-10 22:00:00,
2013-06-10 17:02:00,76.2,65.3,29.74,SSE,158,2.0,2.0,69,0.00,,,0.00,Wunderground v.1.15,2013-06-10 22:02:00,
2013-06-10 17:03:00,76.2,65.7,29.74,SSE,158,0.0,2.0,70,0.00,,,0.00,Wunderground v.1.15,2013-06-10 22:03:00,
2013-06-10 17:04:00,76.2,64.9,29.74,SE,141,2.0,2.0,68,0.00,,,0.00,Wunderground v.1.15,2013-06-10 22:04:00,
2013-06-10 17:08:00,75.7,64.4,29.74,ESE,123,1.0,5.0,68,0.00,,,0.00,Wunderground v.1.15,2013-06-10 22:08:00,
2013-06-10 17:09:00,75.6,64.3,29.74,SE,134,1.0,5.0,68,0.00,,,0.00,Wunderground v.1.15,2013-06-10 22:09:00,
2013-06-10 17:10:00,75.6,64.7,29.74,SE,133,1.0,5.0,69,0.00,,,0.00,Wunderground v.1.15,2013-06-10 22:10:00,
2013-06-10 17:11:00,75.6,64.7,29.74,SE,133,1.0,5.0,69,0.00,,,0.00,Wunderground v.1.15,2013-06-10 22:11:00,
2013-06-10 17:13:00,75.5,65.0,29.74,SE,133,0.0,2.0,70,0.00,,,0.00,Wunderground v.1.15,2013-06-10 22:13:00,
2013-06-10 17:14:00,75.5,65.0,29.74,SE,133,0.0,2.0,70,0.00,,,0.00,Wunderground v.1.15,2013-06-10 22:14:00,
2013-06-10 17:16:00,75.6,65.1,29.74,SE,136,2.0,2.0,70,0.00,,,0.00,Wunderground v.1.15,2013-06-10 22:16:00,
2013-06-10 17:17:00,75.6,64.7,29.74,SE,136,2.0,2.0,69,0.00,,,0.00,Wunderground v.1.15,2013-06-10 22:17:00,
2013-06-10 17:18:00,75.7,65.2,29.74,ESE,111,0.0,3.0,70,0.00,,,0.00,Wunderground v.1.15,2013-06-10 22:18:00,
2013-06-10 17:19:00,75.7,64.4,29.74,ESE,111,1.0,3.0,68,0.00,,,0.00,Wunderground v.1.15,2013-06-10 22:19:00,
2013-06-10 17:20:00,75.6,64.3,29.74,ESE,111,2.0,3.0,68,0.00,,,0.00,Wunderground v.1.15,2013-06-10 22:20:00,
2013-06-10 17:21:00,75.6,64.3,29.74,ESE,111,0.0,1.0,68,0.00,,,0.00,Wunderground v.1.15,2013-06-10 22:21:00,
2013-06-10 17:24:00,75.4,65.3,29.74,ESE,113,0.0,1.0,71,0.00,,,0.00,Wunderground v.1.15,2013-06-10 22:24:00,
2013-06-10 17:25:00,75.4,65.3,29.74,ESE,113,0.0,1.0,71,0.00,,,0.00,Wunderground v.1.15,2013-06-10 22:25:00,
2013-06-10 17:26:00,75.5,65.0,29.74,ESE,113,0.0,1.0,70,0.00,,,0.00,Wunderground v.1.15,2013-06-10 22:26:00,
2013-06-10 17:28:00,75.7,65.6,29.74,ESE,113,0.0,1.0,71,0.00,,,0.00,Wunderground v.1.15,2013-06-10 22:28:00,
2013-06-10 17:30:00,75.7,64.8,29.74,ESE,117,1.0,3.0,69,0.00,,,0.00,Wunderground v.1.15,2013-06-10 22:30:00,
2013-06-10 17:33:00,75.6,64.7,29.74,SE,138,1.0,5.0,69,0.00,,,0.00,Wunderground v.1.15,2013-06-10 22:33:00,
2013-06-10 17:34:00,75.5,65.0,29.74,SE,127,0.0,5.0,70,0.00,,,0.00,Wunderground v.1.15,2013-06-10 22:34:00,
2013-06-10 17:36:00,75.4,64.5,29.74,SE,127,0.0,5.0,69,0.00,,,0.00,Wunderground v.1.15,2013-06-10 22:36:00,
2013-06-10 17:38:00,75.2,64.3,29.74,SE,131,4.0,5.0,69,0.00,,,0.00,Wunderground v.1.15,2013-06-10 22:38:00,
2013-06-10 17:39:00,75.2,64.7,29.74,ESE,123,3.0,5.0,70,0.00,,,0.00,Wunderground v.1.15,2013-06-10 22:39:00,
2013-06-10 17:40:00,75.2,64.7,29.74,SE,140,4.0,5.0,70,0.00,,,0.00,Wunderground v.1.15,2013-06-10 22:40:00,
2013-06-10 17:41:00,75.1,64.6,29.74,SE,129,2.0,2.0,70,0.00,,,0.00,Wunderground v.1.15,2013-06-10 22:41:00,
2013-06-10 17:44:00,75.1,65.5,29.74,SE,130,0.0,2.0,72,0.00,,,0.00,Wunderground v.1.15,2013-06-10 22:44:00,
2013-06-10 17:45:00,75.0,64.5,29.74,SE,130,0.0,2.0,70,0.00,,,0.00,Wunderground v.1.15,2013-06-10 22:45:00,
2013-06-10 17:46:00,75.1,65.1,29.74,SE,130,0.0,2.0,71,0.00,,,0.00,Wunderground v.1.15,2013-06-10 22:46:00,
2013-06-10 17:48:00,75.2,64.7,29.74,SE,128,0.0,2.0,70,0.00,,,0.00,Wunderground v.1.15,2013-06-10 22:48:00,
2013-06-10 17:51:00,75.3,64.8,29.74,ESE,113,0.0,2.0,70,0.00,,,0.00,Wunderground v.1.15,2013-06-10 22:51:00,
2013-06-10 17:53:00,75.3,65.2,29.74,SE,133,2.0,3.0,71,0.00,,,0.00,Wunderground v.1.15,2013-06-10 22:53:00,
2013-06-10 17:54:00,75.2,64.7,29.74,SE,127,0.0,3.0,70,0.00,,,0.00,Wunderground v.1.15,2013-06-10 22:54:00,
2013-06-10 17:57:00,75.0,64.5,29.73,SE,126,0.0,3.0,70,0.00,,,0.00,Wunderground v.1.15,2013-06-10 22:57:00,
2013-06-10 17:58:00,74.9,64.5,29.73,SE,127,0.0,3.0,70,0.00,,,0.00,Wunderground v.1.15,2013-06-10 22:58:00,
2013-06-10 17:59:00,74.9,64.9,29.73,ESE,117,1.0,3.0,71,0.00,,,0.00,Wunderground v.1.15,2013-06-10 22:59:00,
2013-06-10 18:00:00,74.8,64.8,29.73,ENE,59,3.0,3.0,71,0.00,,,0.00,Wunderground v.1.15,2013-06-10 23:00:00,
2013-06-10 18:03:00,74.7,65.1,29.73,ENE,63,0.0,1.0,72,0.00,,,0.00,Wunderground v.1.15,2013-06-10 23:03:00,
2013-06-10 18:04:00,74.8,65.2,29.73,ENE,63,0.0,1.0,72,0.00,,,0.00,Wunderground v.1.15,2013-06-10 23:04:00,
2013-06-10 18:05:00,74.8,64.8,29.73,ENE,63,0.0,1.0,71,0.00,,,0.00,Wunderground v.1.15,2013-06-10 23:05:00,
2013-06-10 18:06:00,74.9,64.9,29.73,ENE,63,0.0,1.0,71,0.00,,,0.00,Wunderground v.1.15,2013-06-10 23:06:00,
2013-06-10 18:09:00,74.9,64.5,29.73,ENE,68,0.0,1.0,70,0.00,,,0.00,Wunderground v.1.15,2013-06-10 23:09:00,
2013-06-10 18:11:00,74.9,64.9,29.73,ENE,69,0.0,1.0,71,0.00,,,0.00,Wunderground v.1.15,2013-06-10 23:11:00,
2013-06-10 18:12:00,74.9,64.9,29.73,ENE,69,0.0,0.0,71,0.00,,,0.00,Wunderground v.1.15,2013-06-10 23:12:00,
2013-06-10 18:15:00,74.8,64.4,29.73,ENE,69,0.0,1.0,70,0.00,,,0.00,Wunderground v.1.15,2013-06-10 23:15:00,
2013-06-10 18:17:00,74.7,64.3,29.73,East,80,0.0,2.0,70,0.00,,,0.00,Wunderground v.1.15,2013-06-10 23:17:00,
2013-06-10 18:21:00,74.3,63.9,29.73,ESE,106,0.0,2.0,70,0.00,,,0.00,Wunderground v.1.15,2013-06-10 23:21:00,
2013-06-10 18:22:00,74.2,64.2,29.74,ESE,106,0.0,0.0,71,0.00,,,0.00,Wunderground v.1.15,2013-06-10 23:22:00,
2013-06-10 18:23:00,74.2,65.0,29.73,ESE,106,0.0,0.0,73,0.00,,,0.00,Wunderground v.1.15,2013-06-10 23:23:00,
2013-06-10 18:24:00,74.2,64.2,29.73,ESE,106,0.0,0.0,71,0.00,,,0.00,Wunderground v.1.15,2013-06-10 23:24:00,
2013-06-10 18:27:00,74.1,64.1,29.74,ESE,106,0.0,0.0,71,0.00,,,0.00,Wunderground v.1.15,2013-06-10 23:27:00,
2013-06-10 18:28:00,74.1,64.1,29.74,ESE,106,0.0,1.0,71,0.00,,,0.00,Wunderground v.1.15,2013-06-10 23:28:00,
2013-06-10 18:29:00,74.0,64.4,29.74,ESE,106,0.0,1.0,72,0.00,,,0.00,Wunderground v.1.15,2013-06-10 23:29:00,
2013-06-10 18:30:00,73.9,64.3,29.74,ESE,106,0.0,1.0,72,0.00,,,0.00,Wunderground v.1.15,2013-06-10 23:30:00,
2013-06-10 18:32:00,73.9,64.3,29.73,ESE,105,0.0,0.0,72,0.00,,,0.00,Wunderground v.1.15,2013-06-10 23:32:00,
2013-06-10 18:33:00,73.8,64.2,29.73,ESE,105,0.0,0.0,72,0.00,,,0.00,Wunderground v.1.15,2013-06-10 23:33:00,
2013-06-10 18:36:00,73.8,64.2,29.73,ESE,105,0.0,0.0,72,0.00,,,0.00,Wunderground v.1.15,2013-06-10 23:36:00,
2013-06-10 18:37:00,73.8,64.2,29.74,ESE,105,0.0,0.0,72,0.00,,,0.00,Wunderground v.1.15,2013-06-10 23:37:00,
2013-06-10 18:38:00,73.8,64.2,29.74,ESE,105,0.0,0.0,72,0.00,,,0.00,Wunderground v.1.15,2013-06-10 23:38:00,
2013-06-10 18:40:00,73.8,64.2,29.73,ESE,106,0.0,1.0,72,0.00,,,0.00,Wunderground v.1.15,2013-06-10 23:40:00,
2013-06-10 18:44:00,73.8,64.2,29.74,ESE,112,1.0,1.0,72,0.00,,,0.00,Wunderground v.1.15,2013-06-10 23:44:00,
2013-06-10 18:45:00,73.7,63.7,29.74,ESE,112,0.0,1.0,71,0.00,,,0.00,Wunderground v.1.15,2013-06-10 23:45:00,
2013-06-10 18:46:00,73.7,63.7,29.74,ESE,112,0.0,1.0,71,0.00,,,0.00,Wunderground v.1.15,2013-06-10 23:46:00,
2013-06-10 18:47:00,73.7,64.1,29.74,ESE,112,0.0,1.0,72,0.00,,,0.00,Wunderground v.1.15,2013-06-10 23:47:00,
2013-06-10 18:49:00,73.6,64.4,29.74,ESE,112,0.0,1.0,73,0.00,,,0.00,Wunderground v.1.15,2013-06-10 23:49:00,
2013-06-10 18:51:00,73.4,64.2,29.74,ESE,109,1.0,1.0,73,0.00,,,0.00,Wunderground v.1.15,2013-06-10 23:51:00,
2013-06-10 18:52:00,73.3,64.1,29.74,ESE,103,0.0,1.0,73,0.00,,,0.00,Wunderground v.1.15,2013-06-10 23:52:00,
2013-06-10 18:53:00,73.3,64.1,29.74,ESE,103,0.0,1.0,73,0.00,,,0.00,Wunderground v.1.15,2013-06-10 23:53:00,
2013-06-10 18:54:00,73.3,64.1,29.74,ESE,103,0.0,1.0,73,0.00,,,0.00,Wunderground v.1.15,2013-06-10 23:54:00,
2013-06-10 18:56:00,73.2,64.0,29.74,ESE,103,0.0,1.0,73,0.00,,,0.00,Wunderground v.1.15,2013-06-10 23:56:00,
2013-06-10 18:58:00,73.2,64.0,29.74,ESE,103,0.0,1.0,73,0.00,,,0.00,Wunderground v.1.15,2013-06-10 23:58:00,
2013-06-10 18:59:00,73.2,64.0,29.74,ESE,103,0.0,1.0,73,0.00,,,0.00,Wunderground v.1.15,2013-06-10 23:59:00,
2013-06-10 19:03:00,73.0,63.4,29.74,ESE,103,0.0,2.0,72,0.00,,,0.00,Wunderground v.1.15,2013-06-11 00:03:00,
2013-06-10 19:04:00,73.0,63.8,29.74,ESE,103,0.0,2.0,73,0.00,,,0.00,Wunderground v.1.15,2013-06-11 00:04:00,
2013-06-10 19:06:00,72.9,64.5,29.74,ESE,103,0.0,2.0,75,0.00,,,0.00,Wunderground v.1.15,2013-06-11 00:06:00,
2013-06-10 19:07:00,72.8,64.4,29.74,ESE,103,0.0,2.0,75,0.00,,,0.00,Wunderground v.1.15,2013-06-11 00:07:00,
2013-06-10 19:08:00,72.7,63.5,29.74,ESE,103,0.0,2.0,73,0.00,,,0.00,Wunderground v.1.15,2013-06-11 00:08:00,
2013-06-10 19:10:00,72.5,64.1,29.74,ESE,103,0.0,2.0,75,0.00,,,0.00,Wunderground v.1.15,2013-06-11 00:10:00,
2013-06-10 19:12:00,72.1,63.4,29.74,ESE,103,0.0,1.0,74,0.00,,,0.00,Wunderground v.1.15,2013-06-11 00:12:00,
2013-06-10 19:13:00,72.0,63.6,29.74,ESE,103,0.0,1.0,75,0.00,,,0.00,Wunderground v.1.15,2013-06-11 00:13:00,
2013-06-10 19:14:00,71.9,63.5,29.74,ESE,102,0.0,1.0,75,0.00,,,0.00,Wunderground v.1.15,2013-06-11 00:14:00,
2013-06-10 19:15:00,71.8,63.4,29.74,ESE,102,1.0,1.0,75,0.00,,,0.00,Wunderground v.1.15,2013-06-11 00:15:00,
2013-06-10 19:16:00,71.8,63.4,29.74,ESE,103,1.0,1.0,75,0.00,,,0.00,Wunderground v.1.15,2013-06-11 00:16:00,
2013-06-10 19:19:00,71.5,63.2,29.74,East,100,0.0,1.0,75,0.00,,,0.00,Wunderground v.1.15,2013-06-11 00:19:00,
2013-06-10 19:21:00,71.4,63.1,29.74,East,101,0.0,1.0,75,0.00,,,0.00,Wunderground v.1.15,2013-06-11 00:21:00,
2013-06-10 19:22:00,71.4,63.1,29.74,NE,52,0.0,1.0,75,0.00,,,0.00,Wunderground v.1.15,2013-06-11 00:22:00,
2013-06-10 19:24:00,71.2,62.9,29.74,ENE,63,1.0,1.0,75,0.00,,,0.00,Wunderground v.1.15,2013-06-11 00:24:00,
2013-06-10 19:27:00,71.0,62.7,29.74,ENE,76,0.0,1.0,75,0.00,,,0.00,Wunderground v.1.15,2013-06-11 00:27:00,
2013-06-10 19:28:00,70.9,62.6,29.74,ENE,77,0.0,1.0,75,0.00,,,0.00,Wunderground v.1.15,2013-06-11 00:28:00,
2013-06-10 19:29:00,70.8,62.5,29.75,East,79,0.0,2.0,75,0.00,,,0.00,Wunderground v.1.15,2013-06-11 00:29:00,
2013-06-10 19:30:00,70.7,62.4,29.75,East,79,0.0,2.0,75,0.00,,,0.00,Wunderground v.1.15,2013-06-11 00:30:00,
2013-06-10 19:32:00,70.4,62.5,29.75,East,80,0.0,0.0,76,0.00,,,0.00,Wunderground v.1.15,2013-06-11 00:32:00,
2013-06-10 19:33:00,70.3,62.4,29.75,East,80,0.0,0.0,76,0.00,,,0.00,Wunderground v.1.15,2013-06-11 00:33:00,
2013-06-10 19:35:00,70.2,62.3,29.75,ESE,119,2.0,4.0,76,0.00,,,0.00,Wunderground v.1.15,2013-06-11 00:35:00,
2013-06-10 19:39:00,69.4,61.5,29.75,ESE,121,0.0,4.0,76,0.00,,,0.00,Wunderground v.1.15,2013-06-11 00:39:00,
2013-06-10 19:41:00,69.1,61.6,29.75,ESE,121,0.0,4.0,77,0.00,,,0.00,Wunderground v.1.15,2013-06-11 00:41:00,
2013-06-10 19:42:00,68.9,61.0,29.75,ESE,121,0.0,1.0,76,0.00,,,0.00,Wunderground v.1.15,2013-06-11 00:42:00,
2013-06-10 19:44:00,68.7,61.2,29.75,ESE,121,0.0,1.0,77,0.00,,,0.00,Wunderground v.1.15,2013-06-11 00:44:00,
2013-06-10 19:45:00,68.6,61.1,29.75,ESE,121,1.0,1.0,77,0.00,,,0.00,Wunderground v.1.15,2013-06-11 00:45:00,
2013-06-10 19:46:00,68.5,61.0,29.75,ESE,121,0.0,1.0,77,0.00,,,0.00,Wunderground v.1.15,2013-06-11 00:46:00,
2013-06-10 19:47:00,68.4,60.9,29.75,ESE,123,1.0,2.0,77,0.00,,,0.00,Wunderground v.1.15,2013-06-11 00:47:00,
2013-06-10 19:50:00,68.1,61.0,29.75,ESE,123,0.0,2.0,78,0.00,,,0.00,Wunderground v.1.15,2013-06-11 00:50:00,
2013-06-10 19:51:00,67.9,60.8,29.75,ESE,122,0.0,0.0,78,0.00,,,0.00,Wunderground v.1.15,2013-06-11 00:51:00,
2013-06-10 19:52:00,67.9,60.8,29.75,ESE,122,0.0,0.0,78,0.00,,,0.00,Wunderground v.1.15,2013-06-11 00:52:00,
2013-06-10 19:56:00,67.6,60.9,29.75,ESE,122,0.0,1.0,79,0.00,,,0.00,Wunderground v.1.15,2013-06-11 00:56:00,
2013-06-10 19:57:00,67.5,60.8,29.75,ESE,122,0.0,1.0,79,0.00,,,0.00,Wunderground v.1.15,2013-06-11 00:57:00,
2013-06-10 19:58:00,67.5,61.1,29.75,ESE,122,0.0,1.0,80,0.00,,,0.00,Wunderground v.1.15,2013-06-11 00:58:00,
2013-06-10 20:00:00,70.1,64.0,29.75,ESE,112,0.0,4.0,81,0.00,,,-99.99,WeatherLink 5.9.3,2013-06-11 01:00:00,
2013-06-10 20:01:00,67.2,60.8,29.75,ESE,122,0.0,1.0,80,0.00,,,0.00,Wunderground v.1.15,2013-06-11 01:01:00,
2013-06-10 20:02:00,67.1,61.1,29.75,ESE,122,0.0,0.0,81,0.00,,,0.00,Wunderground v.1.15,2013-06-11 01:02:00,
2013-06-10 20:03:00,67.0,61.0,29.75,ESE,122,0.0,0.0,81,0.00,,,0.00,Wunderground v.1.15,2013-06-11 01:03:00,
2013-06-10 20:04:00,67.0,61.0,29.75,ESE,123,0.0,0.0,81,0.00,,,0.00,Wunderground v.1.15,2013-06-11 01:04:00,
2013-06-10 20:06:00,66.8,60.8,29.75,ESE,122,0.0,0.0,81,0.00,,,0.00,Wunderground v.1.15,2013-06-11 01:06:00,
2013-06-10 20:07:00,66.7,60.7,29.75,ESE,122,0.0,0.0,81,0.00,,,0.00,Wunderground v.1.15,2013-06-11 01:07:00,
2013-06-10 20:08:00,66.7,60.7,29.76,ESE,122,0.0,0.0,81,0.00,,,0.00,Wunderground v.1.15,2013-06-11 01:08:00,
2013-06-10 20:09:00,66.6,60.6,29.76,ESE,122,0.0,0.0,81,0.00,,,0.00,Wunderground v.1.15,2013-06-11 01:09:00,
2013-06-10 20:10:00,66.5,60.5,29.76,ESE,122,0.0,0.0,81,0.00,,,0.00,Wunderground v.1.15,2013-06-11 01:10:00,
2013-06-10 20:12:00,66.4,60.4,29.76,ESE,122,0.0,0.0,81,0.00,,,0.00,Wunderground v.1.15,2013-06-11 01:12:00,
2013-06-10 20:13:00,66.3,60.3,29.76,ESE,122,0.0,3.0,81,0.00,,,0.00,Wunderground v.1.15,2013-06-11 01:13:00,
2013-06-10 20:14:00,66.2,60.2,29.76,ESE,122,0.0,3.0,81,0.00,,,0.00,Wunderground v.1.15,2013-06-11 01:14:00,
2013-06-10 20:16:00,66.1,60.4,29.76,ESE,111,2.0,3.0,82,0.00,,,0.00,Wunderground v.1.15,2013-06-11 01:16:00,
2013-06-10 20:17:00,66.0,60.3,29.76,ESE,103,0.0,3.0,82,0.00,,,0.00,Wunderground v.1.15,2013-06-11 01:17:00,
2013-06-10 20:19:00,66.0,60.3,29.76,ESE,103,0.0,3.0,82,0.00,,,0.00,Wunderground v.1.15,2013-06-11 01:19:00,
2013-06-10 20:21:00,65.8,60.2,29.76,ESE,103,0.0,3.0,82,0.00,,,0.00,Wunderground v.1.15,2013-06-11 01:21:00,
2013-06-10 20:24:00,65.6,60.0,29.76,ESE,103,0.0,0.0,82,0.00,,,0.00,Wunderground v.1.15,2013-06-11 01:24:00,
2013-06-10 20:25:00,65.6,60.0,29.76,ESE,103,0.0,0.0,82,0.00,,,0.00,Wunderground v.1.15,2013-06-11 01:25:00,
2013-06-10 20:26:00,65.5,59.9,29.76,ESE,104,0.0,2.0,82,0.00,,,0.00,Wunderground v.1.15,2013-06-11 01:26:00,
2013-06-10 20:27:00,65.5,59.9,29.76,ESE,104,0.0,2.0,82,0.00,,,0.00,Wunderground v.1.15,2013-06-11 01:27:00,
2013-06-10 20:30:00,65.3,60.0,29.76,ESE,104,1.0,2.0,83,0.00,,,0.00,Wunderground v.1.15,2013-06-11 01:30:00,
2013-06-10 20:32:00,65.2,59.9,29.77,ESE,104,0.0,0.0,83,0.00,,,0.00,Wunderground v.1.15,2013-06-11 01:32:00,
2013-06-10 20:33:00,65.2,59.9,29.76,ESE,104,0.0,0.0,83,0.00,,,0.00,Wunderground v.1.15,2013-06-11 01:33:00,
2013-06-10 20:36:00,65.0,59.7,29.76,ESE,104,0.0,1.0,83,0.00,,,0.00,Wunderground v.1.15,2013-06-11 01:36:00,
2013-06-10 20:37:00,65.0,59.7,29.76,ESE,104,1.0,1.0,83,0.00,,,0.00,Wunderground v.1.15,2013-06-11 01:37:00,
2013-06-10 20:40:00,64.8,59.9,29.76,ESE,107,0.0,1.0,84,0.00,,,0.00,Wunderground v.1.15,2013-06-11 01:40:00,
2013-06-10 20:41:00,64.8,59.9,29.76,ESE,107,0.0,1.0,84,0.00,,,0.00,Wunderground v.1.15,2013-06-11 01:41:00,
2013-06-10 20:42:00,64.7,59.8,29.76,ESE,107,0.0,0.0,84,0.00,,,0.00,Wunderground v.1.15,2013-06-11 01:42:00,
2013-06-10 20:44:00,64.6,59.7,29.76,ESE,107,0.0,0.0,84,0.00,,,0.00,Wunderground v.1.15,2013-06-11 01:44:00,
2013-06-10 20:45:00,64.5,59.6,29.76,ESE,107,0.0,0.0,84,0.00,,,0.00,Wunderground v.1.15,2013-06-11 01:45:00,
2013-06-10 20:46:00,64.5,59.9,29.76,ESE,107,0.0,0.0,85,0.00,,,0.00,Wunderground v.1.15,2013-06-11 01:46:00,
2013-06-10 20:48:00,64.4,59.8,29.77,ESE,107,0.0,1.0,85,0.00,,,0.00,Wunderground v.1.15,2013-06-11 01:48:00,
2013-06-10 20:49:00,64.4,59.8,29.77,ESE,107,1.0,2.0,85,0.00,,,0.00,Wunderground v.1.15,2013-06-11 01:49:00,
2013-06-10 20:50:00,64.3,59.7,29.77,ESE,107,0.0,2.0,85,0.00,,,0.00,Wunderground v.1.15,2013-06-11 01:50:00,
2013-06-10 20:53:00,64.2,59.6,29.77,ESE,107,0.0,0.0,85,0.00,,,0.00,Wunderground v.1.15,2013-06-11 01:53:00,
2013-06-10 20:56:00,64.1,59.8,29.77,ESE,107,0.0,0.0,86,0.00,,,0.00,Wunderground v.1.15,2013-06-11 01:56:00,
2013-06-10 20:57:00,64.0,59.7,29.77,ESE,107,0.0,0.0,86,0.00,,,0.00,Wunderground v.1.15,2013-06-11 01:57:00,
2013-06-10 20:58:00,64.0,59.7,29.77,ESE,107,0.0,0.0,86,0.00,,,0.00,Wunderground v.1.15,2013-06-11 01:58:00,
2013-06-10 20:59:00,63.9,59.6,29.77,ESE,107,0.0,0.0,86,0.00,,,0.00,Wunderground v.1.15,2013-06-11 01:59:00,
2013-06-10 21:00:00,63.9,59.6,29.77,ESE,107,0.0,0.0,86,0.00,,,0.00,Wunderground v.1.15,2013-06-11 02:00:00,
2013-06-10 21:02:00,63.8,59.5,29.77,ESE,107,0.0,1.0,86,0.00,,,0.00,Wunderground v.1.15,2013-06-11 02:02:00,
2013-06-10 21:04:00,63.7,59.8,29.77,ESE,107,0.0,1.0,87,0.00,,,0.00,Wunderground v.1.15,2013-06-11 02:04:00,
2013-06-10 21:06:00,63.6,59.7,29.77,ESE,107,0.0,1.0,87,0.00,,,0.00,Wunderground v.1.15,2013-06-11 02:06:00,
2013-06-10 21:08:00,63.5,59.6,29.77,ESE,107,0.0,1.0,87,0.00,,,0.00,Wunderground v.1.15,2013-06-11 02:08:00,
2013-06-10 21:09:00,63.4,59.5,29.77,ESE,107,0.0,1.0,87,0.00,,,0.00,Wunderground v.1.15,2013-06-11 02:09:00,
2013-06-10 21:13:00,63.3,59.4,29.77,ESE,107,0.0,0.0,87,0.00,,,0.00,Wunderground v.1.15,2013-06-11 02:13:00,
2013-06-10 21:14:00,63.3,59.4,29.77,ESE,107,0.0,0.0,87,0.00,,,0.00,Wunderground v.1.15,2013-06-11 02:14:00,
2013-06-10 21:18:00,63.1,59.5,29.77,ESE,107,0.0,0.0,88,0.00,,,0.00,Wunderground v.1.15,2013-06-11 02:18:00,
2013-06-10 21:21:00,63.0,59.4,29.77,ESE,107,0.0,0.0,88,0.00,,,0.00,Wunderground v.1.15,2013-06-11 02:21:00,
2013-06-10 21:22:00,62.9,59.3,29.77,ESE,107,0.0,0.0,88,0.00,,,0.00,Wunderground v.1.15,2013-06-11 02:22:00,
2013-06-10 21:23:00,62.8,59.2,29.77,ESE,107,0.0,0.0,88,0.00,,,0.00,Wunderground v.1.15,2013-06-11 02:23:00,
2013-06-10 21:24:00,62.8,59.2,29.77,ESE,107,0.0,0.0,88,0.00,,,0.00,Wunderground v.1.15,2013-06-11 02:24:00,
2013-06-10 21:26:00,62.7,59.1,29.77,ESE,107,0.0,0.0,88,0.00,,,0.00,Wunderground v.1.15,2013-06-11 02:26:00,
2013-06-10 21:28:00,62.6,59.0,29.77,ESE,107,0.0,0.0,88,0.00,,,0.00,Wunderground v.1.15,2013-06-11 02:28:00,
2013-06-10 21:29:00,62.5,59.2,29.77,ESE,107,0.0,0.0,89,0.00,,,0.00,Wunderground v.1.15,2013-06-11 02:29:00,
2013-06-10 21:30:00,62.5,59.2,29.78,ESE,107,0.0,0.0,89,0.00,,,0.00,Wunderground v.1.15,2013-06-11 02:30:00,
2013-06-10 21:32:00,62.3,59.0,29.77,ESE,107,0.0,0.0,89,0.00,,,0.00,Wunderground v.1.15,2013-06-11 02:32:00,
2013-06-10 21:34:00,62.3,59.0,29.77,ESE,107,0.0,0.0,89,0.00,,,0.00,Wunderground v.1.15,2013-06-11 02:34:00,
2013-06-10 21:35:00,62.2,58.9,29.77,ESE,107,0.0,0.0,89,0.00,,,0.00,Wunderground v.1.15,2013-06-11 02:35:00,
2013-06-10 21:37:00,62.2,58.9,29.77,ESE,107,0.0,0.0,89,0.00,,,0.00,Wunderground v.1.15,2013-06-11 02:37:00,
2013-06-10 21:39:00,62.1,59.1,29.77,ESE,107,0.0,0.0,90,0.00,,,0.00,Wunderground v.1.15,2013-06-11 02:39:00,
2013-06-10 21:40:00,62.1,59.1,29.77,ESE,107,0.0,0.0,90,0.00,,,0.00,Wunderground v.1.15,2013-06-11 02:40:00,
2013-06-10 21:41:00,62.0,59.0,29.77,ESE,107,0.0,0.0,90,0.00,,,0.00,Wunderground v.1.15,2013-06-11 02:41:00,
2013-06-10 21:44:00,61.9,58.9,29.78,ESE,107,0.0,0.0,90,0.00,,,0.00,Wunderground v.1.15,2013-06-11 02:44:00,
2013-06-10 21:45:00,61.8,58.8,29.77,ESE,107,0.0,0.0,90,0.00,,,0.00,Wunderground v.1.15,2013-06-11 02:45:00,
2013-06-10 21:46:00,61.8,58.8,29.77,ESE,107,0.0,0.0,90,0.00,,,0.00,Wunderground v.1.15,2013-06-11 02:46:00,
2013-06-10 21:49:00,61.7,58.7,29.77,ESE,107,0.0,0.0,90,0.00,,,0.00,Wunderground v.1.15,2013-06-11 02:49:00,
2013-06-10 21:50:00,61.6,58.6,29.77,ESE,107,0.0,0.0,90,0.00,,,0.00,Wunderground v.1.15,2013-06-11 02:50:00,
2013-06-10 21:51:00,61.6,58.6,29.77,ESE,107,0.0,0.0,90,0.00,,,0.00,Wunderground v.1.15,2013-06-11 02:51:00,
2013-06-10 21:52:00,61.5,58.5,29.77,ESE,107,0.0,0.0,90,0.00,,,0.00,Wunderground v.1.15,2013-06-11 02:52:00,
2013-06-10 21:53:00,61.5,58.8,29.77,ESE,107,0.0,0.0,91,0.00,,,0.00,Wunderground v.1.15,2013-06-11 02:53:00,
2013-06-10 21:56:00,61.3,58.7,29.77,ESE,107,0.0,0.0,91,0.00,,,0.00,Wunderground v.1.15,2013-06-11 02:56:00,
2013-06-10 21:57:00,61.2,58.6,29.78,ESE,107,0.0,0.0,91,0.00,,,0.00,Wunderground v.1.15,2013-06-11 02:57:00,
2013-06-10 22:01:00,61.1,58.8,29.78,ESE,107,0.0,0.0,92,0.00,,,0.00,Wunderground v.1.15,2013-06-11 03:01:00,
2013-06-10 22:02:00,61.1,58.8,29.78,ESE,107,0.0,0.0,92,0.00,,,0.00,Wunderground v.1.15,2013-06-11 03:02:00,
2013-06-10 22:04:00,61.0,58.7,29.77,ESE,107,0.0,0.0,92,0.00,,,0.00,Wunderground v.1.15,2013-06-11 03:04:00,
2013-06-10 22:08:00,60.8,58.5,29.78,ESE,107,0.0,0.0,92,0.00,,,0.00,Wunderground v.1.15,2013-06-11 03:08:00,
2013-06-10 22:09:00,60.8,58.5,29.78,ESE,107,0.0,0.0,92,0.00,,,0.00,Wunderground v.1.15,2013-06-11 03:09:00,
2013-06-10 22:10:00,60.8,58.5,29.78,ESE,107,0.0,0.0,92,0.00,,,0.00,Wunderground v.1.15,2013-06-11 03:10:00,
2013-06-10 22:13:00,60.6,58.3,29.78,ESE,107,0.0,0.0,92,0.00,,,0.00,Wunderground v.1.15,2013-06-11 03:13:00,
2013-06-10 22:14:00,60.6,58.3,29.78,ESE,107,0.0,0.0,92,0.00,,,0.00,Wunderground v.1.15,2013-06-11 03:14:00,
2013-06-10 22:15:00,60.5,58.2,29.78,ESE,107,0.0,0.0,92,0.00,,,0.00,Wunderground v.1.15,2013-06-11 03:15:00,
2013-06-10 22:19:00,60.4,58.4,29.78,ESE,107,0.0,0.0,93,0.00,,,0.00,Wunderground v.1.15,2013-06-11 03:19:00,
2013-06-10 22:21:00,60.3,58.3,29.78,ESE,107,0.0,0.0,93,0.00,,,0.00,Wunderground v.1.15,2013-06-11 03:21:00,
2013-06-10 22:22:00,60.3,58.3,29.78,ESE,107,0.0,0.0,93,0.00,,,0.00,Wunderground v.1.15,2013-06-11 03:22:00,
2013-06-10 22:24:00,60.2,58.2,29.78,ESE,107,0.0,0.0,93,0.00,,,0.00,Wunderground v.1.15,2013-06-11 03:24:00,
2013-06-10 22:27:00,60.1,58.1,29.78,ESE,107,0.0,0.0,93,0.00,,,0.00,Wunderground v.1.15,2013-06-11 03:27:00,
2013-06-10 22:29:00,60.0,58.0,29.78,ESE,107,0.0,0.0,93,0.00,,,0.00,Wunderground v.1.15,2013-06-11 03:29:00,
2013-06-10 22:30:00,60.0,58.0,29.78,ESE,107,0.0,0.0,93,0.00,,,0.00,Wunderground v.1.15,2013-06-11 03:30:00,
2013-06-10 22:33:00,59.9,57.9,29.78,ESE,107,0.0,0.0,93,0.00,,,0.00,Wunderground v.1.15,2013-06-11 03:33:00,
2013-06-10 22:34:00,59.9,57.9,29.78,ESE,107,0.0,0.0,93,0.00,,,0.00,Wunderground v.1.15,2013-06-11 03:34:00,
2013-06-10 22:36:00,59.8,58.1,29.78,ESE,107,0.0,0.0,94,0.00,,,0.00,Wunderground v.1.15,2013-06-11 03:36:00,
2013-06-10 22:37:00,59.8,58.1,29.78,ESE,107,0.0,0.0,94,0.00,,,0.00,Wunderground v.1.15,2013-06-11 03:37:00,
2013-06-10 22:38:00,59.8,58.1,29.78,ESE,107,0.0,0.0,94,0.00,,,0.00,Wunderground v.1.15,2013-06-11 03:38:00,
2013-06-10 22:39:00,59.8,57.8,29.78,ESE,107,0.0,0.0,93,0.00,,,0.00,Wunderground v.1.15,2013-06-11 03:39:00,
2013-06-10 22:40:00,59.8,57.8,29.78,ESE,107,0.0,0.0,93,0.00,,,0.00,Wunderground v.1.15,2013-06-11 03:40:00,
2013-06-10 22:43:00,59.7,58.0,29.78,ESE,107,0.0,0.0,94,0.00,,,0.00,Wunderground v.1.15,2013-06-11 03:43:00,
2013-06-10 22:44:00,59.7,58.0,29.78,ESE,107,0.0,0.0,94,0.00,,,0.00,Wunderground v.1.15,2013-06-11 03:44:00,
2013-06-10 22:46:00,59.6,57.9,29.78,ESE,107,0.0,0.0,94,0.00,,,0.00,Wunderground v.1.15,2013-06-11 03:46:00,
2013-06-10 22:47:00,59.6,57.9,29.78,ESE,107,0.0,0.0,94,0.00,,,0.00,Wunderground v.1.15,2013-06-11 03:47:00,
2013-06-10 22:49:00,59.6,57.9,29.78,ESE,107,0.0,0.0,94,0.00,,,0.00,Wunderground v.1.15,2013-06-11 03:49:00,
2013-06-10 22:51:00,59.5,57.8,29.78,ESE,107,0.0,0.0,94,0.00,,,0.00,Wunderground v.1.15,2013-06-11 03:51:00,
2013-06-10 22:52:00,59.5,57.8,29.78,ESE,107,0.0,0.0,94,0.00,,,0.00,Wunderground v.1.15,2013-06-11 03:52:00,
2013-06-10 22:53:00,59.5,57.8,29.78,ESE,107,0.0,0.0,94,0.00,,,0.00,Wunderground v.1.15,2013-06-11 03:53:00,
2013-06-10 22:56:00,59.4,57.7,29.78,ESE,107,0.0,0.0,94,0.00,,,0.00,Wunderground v.1.15,2013-06-11 03:56:00,
2013-06-10 22:57:00,59.4,57.7,29.78,ESE,107,0.0,0.0,94,0.00,,,0.00,Wunderground v.1.15,2013-06-11 03:57:00,
2013-06-10 22:58:00,59.4,57.7,29.78,ESE,107,0.0,0.0,94,0.00,,,0.00,Wunderground v.1.15,2013-06-11 03:58:00,
2013-06-10 22:59:00,59.4,57.7,29.78,ESE,107,0.0,0.0,94,0.00,,,0.00,Wunderground v.1.15,2013-06-11 03:59:00,
2013-06-10 23:01:00,59.4,57.7,29.78,ESE,107,0.0,0.0,94,0.00,,,0.00,Wunderground v.1.15,2013-06-11 04:01:00,
2013-06-10 23:02:00,59.4,57.7,29.78,ESE,107,0.0,0.0,94,0.00,,,0.00,Wunderground v.1.15,2013-06-11 04:02:00,
2013-06-10 23:06:00,60.0,58.3,29.78,North,-999,0.0,0.0,94,0.00,,,-99.99,WeatherLink 5.9.3,2013-06-11 04:06:00,
2013-06-10 23:07:00,59.3,57.6,29.79,ESE,107,0.0,0.0,94,0.00,,,0.00,Wunderground v.1.15,2013-06-11 04:07:00,
2013-06-10 23:08:00,59.3,57.6,29.79,ESE,107,0.0,0.0,94,0.00,,,0.00,Wunderground v.1.15,2013-06-11 04:08:00,
2013-06-10 23:10:00,59.2,57.5,29.79,ESE,107,0.0,0.0,94,0.00,,,0.00,Wunderground v.1.15,2013-06-11 04:10:00,
2013-06-10 23:12:00,59.1,57.4,29.79,ESE,107,0.0,0.0,94,0.00,,,0.00,Wunderground v.1.15,2013-06-11 04:12:00,
2013-06-10 23:13:00,59.1,57.4,29.79,ESE,107,0.0,0.0,94,0.00,,,0.00,Wunderground v.1.15,2013-06-11 04:13:00,
2013-06-10 23:15:00,59.0,57.3,29.78,ESE,107,0.0,0.0,94,0.00,,,0.00,Wunderground v.1.15,2013-06-11 04:15:00,
2013-06-10 23:17:00,59.0,57.3,29.78,ESE,107,0.0,0.0,94,0.00,,,0.00,Wunderground v.1.15,2013-06-11 04:17:00,
2013-06-10 23:19:00,59.0,57.3,29.78,ESE,107,0.0,0.0,94,0.00,,,0.00,Wunderground v.1.15,2013-06-11 04:19:00,
2013-06-10 23:20:00,58.9,57.2,29.78,ESE,107,0.0,0.0,94,0.00,,,0.00,Wunderground v.1.15,2013-06-11 04:20:00,
2013-06-10 23:22:00,58.8,57.1,29.78,ESE,107,0.0,0.0,94,0.00,,,0.00,Wunderground v.1.15,2013-06-11 04:22:00,
2013-06-10 23:23:00,58.8,57.1,29.78,ESE,107,0.0,0.0,94,0.00,,,0.00,Wunderground v.1.15,2013-06-11 04:23:00,
2013-06-10 23:25:00,58.7,57.3,29.78,ESE,107,0.0,0.0,95,0.00,,,0.00,Wunderground v.1.15,2013-06-11 04:25:00,
2013-06-10 23:26:00,58.7,57.3,29.78,ESE,107,0.0,0.0,95,0.00,,,0.00,Wunderground v.1.15,2013-06-11 04:26:00,
2013-06-10 23:28:00,58.7,57.3,29.78,ESE,107,0.0,0.0,95,0.00,,,0.00,Wunderground v.1.15,2013-06-11 04:28:00,
2013-06-10 23:29:00,58.6,56.9,29.78,ESE,107,0.0,0.0,94,0.00,,,0.00,Wunderground v.1.15,2013-06-11 04:29:00,
2013-06-10 23:31:00,58.6,56.9,29.78,ESE,107,0.0,0.0,94,0.00,,,0.00,Wunderground v.1.15,2013-06-11 04:31:00,
2013-06-10 23:32:00,58.6,56.9,29.78,ESE,107,0.0,0.0,94,0.00,,,0.00,Wunderground v.1.15,2013-06-11 04:32:00,
2013-06-10 23:35:00,58.5,56.8,29.78,ESE,107,0.0,0.0,94,0.00,,,0.00,Wunderground v.1.15,2013-06-11 04:35:00,
2013-06-10 23:36:00,58.5,56.8,29.79,ESE,107,0.0,0.0,94,0.00,,,0.00,Wunderground v.1.15,2013-06-11 04:36:00,
2013-06-10 23:37:00,58.5,56.8,29.78,ESE,107,0.0,0.0,94,0.00,,,0.00,Wunderground v.1.15,2013-06-11 04:37:00,
2013-06-10 23:38:00,58.4,56.7,29.79,ESE,107,0.0,0.0,94,0.00,,,0.00,Wunderground v.1.15,2013-06-11 04:38:00,
2013-06-10 23:41:00,58.3,56.6,29.79,ESE,107,0.0,0.0,94,0.00,,,0.00,Wunderground v.1.15,2013-06-11 04:41:00,
2013-06-10 23:42:00,58.3,56.9,29.79,ESE,107,0.0,0.0,95,0.00,,,0.00,Wunderground v.1.15,2013-06-11 04:42:00,
2013-06-10 23:43:00,58.3,56.9,29.79,ESE,107,0.0,0.0,95,0.00,,,0.00,Wunderground v.1.15,2013-06-11 04:43:00,
2013-06-10 23:44:00,58.3,56.9,29.79,ESE,107,0.0,0.0,95,0.00,,,0.00,Wunderground v.1.15,2013-06-11 04:44:00,
2013-06-10 23:48:00,58.2,56.8,29.78,ESE,107,0.0,0.0,95,0.00,,,0.00,Wunderground v.1.15,2013-06-11 04:48:00,
2013-06-10 23:49:00,58.1,56.7,29.78,ESE,107,0.0,0.0,95,0.00,,,0.00,Wunderground v.1.15,2013-06-11 04:49:00,
2013-06-10 23:52:00,58.0,56.6,29.79,ESE,107,0.0,0.0,95,0.00,,,0.00,Wunderground v.1.15,2013-06-11 04:52:00,
2013-06-10 23:54:00,58.0,56.6,29.79,ESE,107,0.0,0.0,95,0.00,,,0.00,Wunderground v.1.15,2013-06-11 04:54:00,
2013-06-10 23:55:00,58.0,56.6,29.79,ESE,107,0.0,0.0,95,0.00,,,0.00,Wunderground v.1.15,2013-06-11 04:55:00,
2013-06-10 23:58:00,58.0,56.6,29.79,ESE,107,0.0,0.0,95,0.00,,,0.00,Wunderground v.1.15,2013-06-11 04:58:00,
2013-06-10 23:59:00,58.0,56.6,29.79,ESE,107,0.0,0.0,95,0.00,,,0.00,Wunderground v.1.15,2013-06-11 04:59:00,